<?xml version="1.0" encoding="UTF-8" standalone="no" ?>
<gpx xmlns="http://www.topografix.com/GPX/1/1" xmlns:xsi="http://www.w3.org/2001/XMLSchema-instance" xsi:schemaLocation="http://www.topografix.com/GPX/1/1 http://www.topografix.com/GPX/1/1/gpx.xsd" version="1.1" creator="VisuGPX - https://www.visugpx.com">
  <metadata>
    <name>10067019-2019 36 km plaine joux</name>
  </metadata>
  <trk>
    <name><![CDATA[10067019-2019 36 km plaine joux]]></name>
    <trkseg>
      <trkpt lat="46.24854" lon="6.47258">
        <ele>954</ele>
        <time>2020-08-30T17:10:08Z</time>
      </trkpt>
      <trkpt lat="46.24806" lon="6.47318">
        <ele>955</ele>
        <time>2020-08-30T17:10:23Z</time>
      </trkpt>
      <trkpt lat="46.24808" lon="6.47312">
        <ele>955</ele>
        <time>2020-08-30T17:10:24Z</time>
      </trkpt>
      <trkpt lat="46.24843" lon="6.47337">
        <ele>959</ele>
        <time>2020-08-30T17:10:33Z</time>
      </trkpt>
      <trkpt lat="46.24852" lon="6.47341">
        <ele>959</ele>
        <time>2020-08-30T17:10:35Z</time>
      </trkpt>
      <trkpt lat="46.24879" lon="6.47332">
        <ele>960</ele>
        <time>2020-08-30T17:10:42Z</time>
      </trkpt>
      <trkpt lat="46.24972" lon="6.47258">
        <ele>962</ele>
        <time>2020-08-30T17:11:06Z</time>
      </trkpt>
      <trkpt lat="46.24984" lon="6.47252">
        <ele>963</ele>
        <time>2020-08-30T17:11:09Z</time>
      </trkpt>
      <trkpt lat="46.24995" lon="6.4725">
        <ele>964</ele>
        <time>2020-08-30T17:11:12Z</time>
      </trkpt>
      <trkpt lat="46.25048" lon="6.47256">
        <ele>966</ele>
        <time>2020-08-30T17:11:24Z</time>
      </trkpt>
      <trkpt lat="46.25069" lon="6.47286">
        <ele>969</ele>
        <time>2020-08-30T17:11:31Z</time>
      </trkpt>
      <trkpt lat="46.25094" lon="6.47295">
        <ele>971</ele>
        <time>2020-08-30T17:11:37Z</time>
      </trkpt>
      <trkpt lat="46.25211" lon="6.47354">
        <ele>982</ele>
        <time>2020-08-30T17:12:06Z</time>
      </trkpt>
      <trkpt lat="46.2524" lon="6.47362">
        <ele>984</ele>
        <time>2020-08-30T17:12:13Z</time>
      </trkpt>
      <trkpt lat="46.25272" lon="6.47384">
        <ele>988</ele>
        <time>2020-08-30T17:12:21Z</time>
      </trkpt>
      <trkpt lat="46.25357" lon="6.47403">
        <ele>995</ele>
        <time>2020-08-30T17:12:42Z</time>
      </trkpt>
      <trkpt lat="46.25386" lon="6.474">
        <ele>996</ele>
        <time>2020-08-30T17:12:48Z</time>
      </trkpt>
      <trkpt lat="46.254" lon="6.47391">
        <ele>995</ele>
        <time>2020-08-30T17:12:52Z</time>
      </trkpt>
      <trkpt lat="46.25445" lon="6.47418">
        <ele>999</ele>
        <time>2020-08-30T17:13:03Z</time>
      </trkpt>
      <trkpt lat="46.2547" lon="6.47429">
        <ele>1001</ele>
        <time>2020-08-30T17:13:09Z</time>
      </trkpt>
      <trkpt lat="46.25509" lon="6.47453">
        <ele>1004</ele>
        <time>2020-08-30T17:13:19Z</time>
      </trkpt>
      <trkpt lat="46.25543" lon="6.47479">
        <ele>1004</ele>
        <time>2020-08-30T17:13:28Z</time>
      </trkpt>
      <trkpt lat="46.25582" lon="6.47489">
        <ele>1000</ele>
        <time>2020-08-30T17:13:38Z</time>
      </trkpt>
      <trkpt lat="46.2562" lon="6.47513">
        <ele>1001</ele>
        <time>2020-08-30T17:13:47Z</time>
      </trkpt>
      <trkpt lat="46.25628" lon="6.4752">
        <ele>1002</ele>
        <time>2020-08-30T17:13:49Z</time>
      </trkpt>
      <trkpt lat="46.25709" lon="6.47636">
        <ele>1009</ele>
        <time>2020-08-30T17:14:16Z</time>
      </trkpt>
      <trkpt lat="46.25752" lon="6.4768">
        <ele>1012</ele>
        <time>2020-08-30T17:14:28Z</time>
      </trkpt>
      <trkpt lat="46.25813" lon="6.47721">
        <ele>1013</ele>
        <time>2020-08-30T17:14:44Z</time>
      </trkpt>
      <trkpt lat="46.25825" lon="6.47725">
        <ele>1013</ele>
        <time>2020-08-30T17:14:47Z</time>
      </trkpt>
      <trkpt lat="46.25864" lon="6.47729">
        <ele>1013</ele>
        <time>2020-08-30T17:14:56Z</time>
      </trkpt>
      <trkpt lat="46.25899" lon="6.4775">
        <ele>1014</ele>
        <time>2020-08-30T17:15:05Z</time>
      </trkpt>
      <trkpt lat="46.25932" lon="6.47783">
        <ele>1018</ele>
        <time>2020-08-30T17:15:14Z</time>
      </trkpt>
      <trkpt lat="46.25939" lon="6.47795">
        <ele>1019</ele>
        <time>2020-08-30T17:15:17Z</time>
      </trkpt>
      <trkpt lat="46.25966" lon="6.47782">
        <ele>1021</ele>
        <time>2020-08-30T17:15:23Z</time>
      </trkpt>
      <trkpt lat="46.25976" lon="6.47769">
        <ele>1021</ele>
        <time>2020-08-30T17:15:27Z</time>
      </trkpt>
      <trkpt lat="46.25989" lon="6.47716">
        <ele>1019</ele>
        <time>2020-08-30T17:15:36Z</time>
      </trkpt>
      <trkpt lat="46.26006" lon="6.477">
        <ele>1021</ele>
        <time>2020-08-30T17:15:40Z</time>
      </trkpt>
      <trkpt lat="46.26033" lon="6.47718">
        <ele>1030</ele>
        <time>2020-08-30T17:15:47Z</time>
      </trkpt>
      <trkpt lat="46.26059" lon="6.47705">
        <ele>1035</ele>
        <time>2020-08-30T17:15:54Z</time>
      </trkpt>
      <trkpt lat="46.26108" lon="6.47692">
        <ele>1045</ele>
        <time>2020-08-30T17:16:05Z</time>
      </trkpt>
      <trkpt lat="46.26125" lon="6.47657">
        <ele>1042</ele>
        <time>2020-08-30T17:16:12Z</time>
      </trkpt>
      <trkpt lat="46.26139" lon="6.47639">
        <ele>1042</ele>
        <time>2020-08-30T17:16:17Z</time>
      </trkpt>
      <trkpt lat="46.26196" lon="6.47593">
        <ele>1044</ele>
        <time>2020-08-30T17:16:32Z</time>
      </trkpt>
      <trkpt lat="46.26208" lon="6.47587">
        <ele>1044</ele>
        <time>2020-08-30T17:16:35Z</time>
      </trkpt>
      <trkpt lat="46.26262" lon="6.47572">
        <ele>1051</ele>
        <time>2020-08-30T17:16:48Z</time>
      </trkpt>
      <trkpt lat="46.26269" lon="6.47567">
        <ele>1051</ele>
        <time>2020-08-30T17:16:50Z</time>
      </trkpt>
      <trkpt lat="46.26302" lon="6.4753">
        <ele>1051</ele>
        <time>2020-08-30T17:16:59Z</time>
      </trkpt>
      <trkpt lat="46.26316" lon="6.47519">
        <ele>1052</ele>
        <time>2020-08-30T17:17:03Z</time>
      </trkpt>
      <trkpt lat="46.2633" lon="6.47512">
        <ele>1053</ele>
        <time>2020-08-30T17:17:06Z</time>
      </trkpt>
      <trkpt lat="46.26352" lon="6.47509">
        <ele>1056</ele>
        <time>2020-08-30T17:17:12Z</time>
      </trkpt>
      <trkpt lat="46.26363" lon="6.47493">
        <ele>1056</ele>
        <time>2020-08-30T17:17:15Z</time>
      </trkpt>
      <trkpt lat="46.26374" lon="6.47463">
        <ele>1056</ele>
        <time>2020-08-30T17:17:21Z</time>
      </trkpt>
      <trkpt lat="46.2639" lon="6.4747">
        <ele>1060</ele>
        <time>2020-08-30T17:17:25Z</time>
      </trkpt>
      <trkpt lat="46.26433" lon="6.47419">
        <ele>1066</ele>
        <time>2020-08-30T17:17:38Z</time>
      </trkpt>
      <trkpt lat="46.26477" lon="6.47374">
        <ele>1073</ele>
        <time>2020-08-30T17:17:50Z</time>
      </trkpt>
      <trkpt lat="46.2651" lon="6.47361">
        <ele>1081</ele>
        <time>2020-08-30T17:17:58Z</time>
      </trkpt>
      <trkpt lat="46.26537" lon="6.47294">
        <ele>1082</ele>
        <time>2020-08-30T17:18:11Z</time>
      </trkpt>
      <trkpt lat="46.26587" lon="6.47239">
        <ele>1090</ele>
        <time>2020-08-30T17:18:25Z</time>
      </trkpt>
      <trkpt lat="46.26626" lon="6.47217">
        <ele>1097</ele>
        <time>2020-08-30T17:18:35Z</time>
      </trkpt>
      <trkpt lat="46.26664" lon="6.47189">
        <ele>1103</ele>
        <time>2020-08-30T17:18:45Z</time>
      </trkpt>
      <trkpt lat="46.26688" lon="6.47127">
        <ele>1107</ele>
        <time>2020-08-30T17:18:57Z</time>
      </trkpt>
      <trkpt lat="46.26695" lon="6.47071">
        <ele>1104</ele>
        <time>2020-08-30T17:19:06Z</time>
      </trkpt>
      <trkpt lat="46.26709" lon="6.47022">
        <ele>1101</ele>
        <time>2020-08-30T17:19:14Z</time>
      </trkpt>
      <trkpt lat="46.26735" lon="6.46977">
        <ele>1101</ele>
        <time>2020-08-30T17:19:24Z</time>
      </trkpt>
      <trkpt lat="46.26829" lon="6.46861">
        <ele>1096</ele>
        <time>2020-08-30T17:19:53Z</time>
      </trkpt>
      <trkpt lat="46.26791" lon="6.46941">
        <ele>1108</ele>
        <time>2020-08-30T17:20:08Z</time>
      </trkpt>
      <trkpt lat="46.26723" lon="6.47041">
        <ele>1111</ele>
        <time>2020-08-30T17:20:31Z</time>
      </trkpt>
      <trkpt lat="46.26714" lon="6.47094">
        <ele>1116</ele>
        <time>2020-08-30T17:20:40Z</time>
      </trkpt>
      <trkpt lat="46.26721" lon="6.47149">
        <ele>1124</ele>
        <time>2020-08-30T17:20:49Z</time>
      </trkpt>
      <trkpt lat="46.26713" lon="6.47204">
        <ele>1126</ele>
        <time>2020-08-30T17:20:58Z</time>
      </trkpt>
      <trkpt lat="46.2671" lon="6.47243">
        <ele>1128</ele>
        <time>2020-08-30T17:21:04Z</time>
      </trkpt>
      <trkpt lat="46.26699" lon="6.47256">
        <ele>1126</ele>
        <time>2020-08-30T17:21:08Z</time>
      </trkpt>
      <trkpt lat="46.26666" lon="6.4728">
        <ele>1117</ele>
        <time>2020-08-30T17:21:16Z</time>
      </trkpt>
      <trkpt lat="46.26658" lon="6.47295">
        <ele>1117</ele>
        <time>2020-08-30T17:21:19Z</time>
      </trkpt>
      <trkpt lat="46.26651" lon="6.47352">
        <ele>1125</ele>
        <time>2020-08-30T17:21:29Z</time>
      </trkpt>
      <trkpt lat="46.26643" lon="6.4738">
        <ele>1128</ele>
        <time>2020-08-30T17:21:33Z</time>
      </trkpt>
      <trkpt lat="46.26631" lon="6.47408">
        <ele>1128</ele>
        <time>2020-08-30T17:21:39Z</time>
      </trkpt>
      <trkpt lat="46.26625" lon="6.47432">
        <ele>1129</ele>
        <time>2020-08-30T17:21:43Z</time>
      </trkpt>
      <trkpt lat="46.26626" lon="6.47496">
        <ele>1135</ele>
        <time>2020-08-30T17:21:53Z</time>
      </trkpt>
      <trkpt lat="46.26636" lon="6.47546">
        <ele>1141</ele>
        <time>2020-08-30T17:22:02Z</time>
      </trkpt>
      <trkpt lat="46.26638" lon="6.47576">
        <ele>1143</ele>
        <time>2020-08-30T17:22:07Z</time>
      </trkpt>
      <trkpt lat="46.26646" lon="6.47623">
        <ele>1146</ele>
        <time>2020-08-30T17:22:14Z</time>
      </trkpt>
      <trkpt lat="46.26646" lon="6.47668">
        <ele>1145</ele>
        <time>2020-08-30T17:22:22Z</time>
      </trkpt>
      <trkpt lat="46.26657" lon="6.4771">
        <ele>1151</ele>
        <time>2020-08-30T17:22:29Z</time>
      </trkpt>
      <trkpt lat="46.26648" lon="6.47779">
        <ele>1149</ele>
        <time>2020-08-30T17:22:40Z</time>
      </trkpt>
      <trkpt lat="46.26647" lon="6.47804">
        <ele>1150</ele>
        <time>2020-08-30T17:22:44Z</time>
      </trkpt>
      <trkpt lat="46.2666" lon="6.47906">
        <ele>1149</ele>
        <time>2020-08-30T17:23:01Z</time>
      </trkpt>
      <trkpt lat="46.26662" lon="6.47952">
        <ele>1151</ele>
        <time>2020-08-30T17:23:08Z</time>
      </trkpt>
      <trkpt lat="46.26681" lon="6.4804">
        <ele>1162</ele>
        <time>2020-08-30T17:23:23Z</time>
      </trkpt>
      <trkpt lat="46.26681" lon="6.48064">
        <ele>1164</ele>
        <time>2020-08-30T17:23:27Z</time>
      </trkpt>
      <trkpt lat="46.26677" lon="6.48078">
        <ele>1165</ele>
        <time>2020-08-30T17:23:30Z</time>
      </trkpt>
      <trkpt lat="46.26692" lon="6.48114">
        <ele>1175</ele>
        <time>2020-08-30T17:23:36Z</time>
      </trkpt>
      <trkpt lat="46.26718" lon="6.48148">
        <ele>1183</ele>
        <time>2020-08-30T17:23:45Z</time>
      </trkpt>
      <trkpt lat="46.26724" lon="6.48165">
        <ele>1186</ele>
        <time>2020-08-30T17:23:48Z</time>
      </trkpt>
      <trkpt lat="46.26753" lon="6.48211">
        <ele>1198</ele>
        <time>2020-08-30T17:23:58Z</time>
      </trkpt>
      <trkpt lat="46.26775" lon="6.48237">
        <ele>1208</ele>
        <time>2020-08-30T17:24:04Z</time>
      </trkpt>
      <trkpt lat="46.268" lon="6.4824">
        <ele>1211</ele>
        <time>2020-08-30T17:24:10Z</time>
      </trkpt>
      <trkpt lat="46.2682" lon="6.48237">
        <ele>1213</ele>
        <time>2020-08-30T17:24:15Z</time>
      </trkpt>
      <trkpt lat="46.26839" lon="6.48227">
        <ele>1213</ele>
        <time>2020-08-30T17:24:20Z</time>
      </trkpt>
      <trkpt lat="46.26847" lon="6.48226">
        <ele>1215</ele>
        <time>2020-08-30T17:24:22Z</time>
      </trkpt>
      <trkpt lat="46.26853" lon="6.48228">
        <ele>1217</ele>
        <time>2020-08-30T17:24:23Z</time>
      </trkpt>
      <trkpt lat="46.26891" lon="6.48254">
        <ele>1228</ele>
        <time>2020-08-30T17:24:33Z</time>
      </trkpt>
      <trkpt lat="46.2689" lon="6.48275">
        <ele>1234</ele>
        <time>2020-08-30T17:24:36Z</time>
      </trkpt>
      <trkpt lat="46.26867" lon="6.48294">
        <ele>1235</ele>
        <time>2020-08-30T17:24:42Z</time>
      </trkpt>
      <trkpt lat="46.26844" lon="6.48286">
        <ele>1229</ele>
        <time>2020-08-30T17:24:48Z</time>
      </trkpt>
      <trkpt lat="46.26811" lon="6.48307">
        <ele>1231</ele>
        <time>2020-08-30T17:24:56Z</time>
      </trkpt>
      <trkpt lat="46.26765" lon="6.4832">
        <ele>1230</ele>
        <time>2020-08-30T17:25:07Z</time>
      </trkpt>
      <trkpt lat="46.26729" lon="6.48324">
        <ele>1228</ele>
        <time>2020-08-30T17:25:16Z</time>
      </trkpt>
      <trkpt lat="46.26669" lon="6.48303">
        <ele>1221</ele>
        <time>2020-08-30T17:25:30Z</time>
      </trkpt>
      <trkpt lat="46.26684" lon="6.48335">
        <ele>1227</ele>
        <time>2020-08-30T17:25:36Z</time>
      </trkpt>
      <trkpt lat="46.26715" lon="6.48386">
        <ele>1237</ele>
        <time>2020-08-30T17:25:47Z</time>
      </trkpt>
      <trkpt lat="46.26698" lon="6.48455">
        <ele>1232</ele>
        <time>2020-08-30T17:25:59Z</time>
      </trkpt>
      <trkpt lat="46.26681" lon="6.4858">
        <ele>1209</ele>
        <time>2020-08-30T17:26:20Z</time>
      </trkpt>
      <trkpt lat="46.26712" lon="6.4868">
        <ele>1201</ele>
        <time>2020-08-30T17:26:37Z</time>
      </trkpt>
      <trkpt lat="46.26738" lon="6.48732">
        <ele>1198</ele>
        <time>2020-08-30T17:26:48Z</time>
      </trkpt>
      <trkpt lat="46.26767" lon="6.48783">
        <ele>1203</ele>
        <time>2020-08-30T17:26:58Z</time>
      </trkpt>
      <trkpt lat="46.26774" lon="6.48833">
        <ele>1200</ele>
        <time>2020-08-30T17:27:07Z</time>
      </trkpt>
      <trkpt lat="46.26768" lon="6.48927">
        <ele>1185</ele>
        <time>2020-08-30T17:27:22Z</time>
      </trkpt>
      <trkpt lat="46.26775" lon="6.48968">
        <ele>1182</ele>
        <time>2020-08-30T17:27:29Z</time>
      </trkpt>
      <trkpt lat="46.26778" lon="6.49009">
        <ele>1177</ele>
        <time>2020-08-30T17:27:35Z</time>
      </trkpt>
      <trkpt lat="46.26821" lon="6.49118">
        <ele>1177</ele>
        <time>2020-08-30T17:27:56Z</time>
      </trkpt>
      <trkpt lat="46.26869" lon="6.49185">
        <ele>1179</ele>
        <time>2020-08-30T17:28:11Z</time>
      </trkpt>
      <trkpt lat="46.26867" lon="6.49243">
        <ele>1172</ele>
        <time>2020-08-30T17:28:21Z</time>
      </trkpt>
      <trkpt lat="46.26875" lon="6.49279">
        <ele>1173</ele>
        <time>2020-08-30T17:28:27Z</time>
      </trkpt>
      <trkpt lat="46.26864" lon="6.49286">
        <ele>1174</ele>
        <time>2020-08-30T17:28:29Z</time>
      </trkpt>
      <trkpt lat="46.26847" lon="6.49268">
        <ele>1175</ele>
        <time>2020-08-30T17:28:34Z</time>
      </trkpt>
      <trkpt lat="46.26777" lon="6.49268">
        <ele>1181</ele>
        <time>2020-08-30T17:28:51Z</time>
      </trkpt>
      <trkpt lat="46.26734" lon="6.49294">
        <ele>1190</ele>
        <time>2020-08-30T17:29:02Z</time>
      </trkpt>
      <trkpt lat="46.26636" lon="6.49309">
        <ele>1201</ele>
        <time>2020-08-30T17:29:25Z</time>
      </trkpt>
      <trkpt lat="46.26612" lon="6.49298">
        <ele>1201</ele>
        <time>2020-08-30T17:29:31Z</time>
      </trkpt>
      <trkpt lat="46.26586" lon="6.49292">
        <ele>1204</ele>
        <time>2020-08-30T17:29:37Z</time>
      </trkpt>
      <trkpt lat="46.26549" lon="6.49271">
        <ele>1201</ele>
        <time>2020-08-30T17:29:46Z</time>
      </trkpt>
      <trkpt lat="46.2648" lon="6.49273">
        <ele>1205</ele>
        <time>2020-08-30T17:30:02Z</time>
      </trkpt>
      <trkpt lat="46.26399" lon="6.49279">
        <ele>1217</ele>
        <time>2020-08-30T17:30:21Z</time>
      </trkpt>
      <trkpt lat="46.26363" lon="6.49258">
        <ele>1226</ele>
        <time>2020-08-30T17:30:30Z</time>
      </trkpt>
      <trkpt lat="46.26344" lon="6.49258">
        <ele>1233</ele>
        <time>2020-08-30T17:30:34Z</time>
      </trkpt>
      <trkpt lat="46.26289" lon="6.49176">
        <ele>1235</ele>
        <time>2020-08-30T17:30:53Z</time>
      </trkpt>
      <trkpt lat="46.2627" lon="6.49142">
        <ele>1236</ele>
        <time>2020-08-30T17:31:00Z</time>
      </trkpt>
      <trkpt lat="46.26259" lon="6.49082">
        <ele>1233</ele>
        <time>2020-08-30T17:31:10Z</time>
      </trkpt>
      <trkpt lat="46.26218" lon="6.49015">
        <ele>1234</ele>
        <time>2020-08-30T17:31:24Z</time>
      </trkpt>
      <trkpt lat="46.26184" lon="6.49007">
        <ele>1236</ele>
        <time>2020-08-30T17:31:33Z</time>
      </trkpt>
      <trkpt lat="46.2613" lon="6.49009">
        <ele>1236</ele>
        <time>2020-08-30T17:31:45Z</time>
      </trkpt>
      <trkpt lat="46.26069" lon="6.49004">
        <ele>1236</ele>
        <time>2020-08-30T17:31:59Z</time>
      </trkpt>
      <trkpt lat="46.26014" lon="6.49026">
        <ele>1248</ele>
        <time>2020-08-30T17:32:13Z</time>
      </trkpt>
      <trkpt lat="46.25995" lon="6.49019">
        <ele>1249</ele>
        <time>2020-08-30T17:32:17Z</time>
      </trkpt>
      <trkpt lat="46.25979" lon="6.49026">
        <ele>1254</ele>
        <time>2020-08-30T17:32:21Z</time>
      </trkpt>
      <trkpt lat="46.25934" lon="6.48996">
        <ele>1256</ele>
        <time>2020-08-30T17:32:33Z</time>
      </trkpt>
      <trkpt lat="46.25903" lon="6.48996">
        <ele>1261</ele>
        <time>2020-08-30T17:32:40Z</time>
      </trkpt>
      <trkpt lat="46.25868" lon="6.48934">
        <ele>1260</ele>
        <time>2020-08-30T17:32:53Z</time>
      </trkpt>
      <trkpt lat="46.25823" lon="6.48919">
        <ele>1266</ele>
        <time>2020-08-30T17:33:04Z</time>
      </trkpt>
      <trkpt lat="46.25808" lon="6.49026">
        <ele>1275</ele>
        <time>2020-08-30T17:33:21Z</time>
      </trkpt>
      <trkpt lat="46.2579" lon="6.49084">
        <ele>1280</ele>
        <time>2020-08-30T17:33:32Z</time>
      </trkpt>
      <trkpt lat="46.25776" lon="6.4915">
        <ele>1282</ele>
        <time>2020-08-30T17:33:43Z</time>
      </trkpt>
      <trkpt lat="46.25734" lon="6.49099">
        <ele>1281</ele>
        <time>2020-08-30T17:33:56Z</time>
      </trkpt>
      <trkpt lat="46.25673" lon="6.49049">
        <ele>1276</ele>
        <time>2020-08-30T17:34:12Z</time>
      </trkpt>
      <trkpt lat="46.25614" lon="6.48994">
        <ele>1269</ele>
        <time>2020-08-30T17:34:28Z</time>
      </trkpt>
      <trkpt lat="46.25571" lon="6.48942">
        <ele>1265</ele>
        <time>2020-08-30T17:34:41Z</time>
      </trkpt>
      <trkpt lat="46.25543" lon="6.4888">
        <ele>1258</ele>
        <time>2020-08-30T17:34:53Z</time>
      </trkpt>
      <trkpt lat="46.25525" lon="6.48803">
        <ele>1250</ele>
        <time>2020-08-30T17:35:07Z</time>
      </trkpt>
      <trkpt lat="46.25482" lon="6.48771">
        <ele>1250</ele>
        <time>2020-08-30T17:35:18Z</time>
      </trkpt>
      <trkpt lat="46.25417" lon="6.48713">
        <ele>1246</ele>
        <time>2020-08-30T17:35:36Z</time>
      </trkpt>
      <trkpt lat="46.25391" lon="6.4868">
        <ele>1244</ele>
        <time>2020-08-30T17:35:44Z</time>
      </trkpt>
      <trkpt lat="46.25366" lon="6.48592">
        <ele>1235</ele>
        <time>2020-08-30T17:35:59Z</time>
      </trkpt>
      <trkpt lat="46.25332" lon="6.48545">
        <ele>1226</ele>
        <time>2020-08-30T17:36:10Z</time>
      </trkpt>
      <trkpt lat="46.25274" lon="6.48479">
        <ele>1208</ele>
        <time>2020-08-30T17:36:27Z</time>
      </trkpt>
      <trkpt lat="46.25267" lon="6.48477">
        <ele>1207</ele>
        <time>2020-08-30T17:36:29Z</time>
      </trkpt>
      <trkpt lat="46.25271" lon="6.48509">
        <ele>1214</ele>
        <time>2020-08-30T17:36:34Z</time>
      </trkpt>
      <trkpt lat="46.25219" lon="6.48468">
        <ele>1200</ele>
        <time>2020-08-30T17:36:48Z</time>
      </trkpt>
      <trkpt lat="46.25188" lon="6.48457">
        <ele>1196</ele>
        <time>2020-08-30T17:36:56Z</time>
      </trkpt>
      <trkpt lat="46.25108" lon="6.4844">
        <ele>1189</ele>
        <time>2020-08-30T17:37:14Z</time>
      </trkpt>
      <trkpt lat="46.25047" lon="6.48414">
        <ele>1180</ele>
        <time>2020-08-30T17:37:29Z</time>
      </trkpt>
      <trkpt lat="46.24961" lon="6.48329">
        <ele>1164</ele>
        <time>2020-08-30T17:37:54Z</time>
      </trkpt>
      <trkpt lat="46.24919" lon="6.48275">
        <ele>1153</ele>
        <time>2020-08-30T17:38:07Z</time>
      </trkpt>
      <trkpt lat="46.24905" lon="6.48245">
        <ele>1143</ele>
        <time>2020-08-30T17:38:13Z</time>
      </trkpt>
      <trkpt lat="46.24897" lon="6.48193">
        <ele>1127</ele>
        <time>2020-08-30T17:38:21Z</time>
      </trkpt>
      <trkpt lat="46.24893" lon="6.48188">
        <ele>1125</ele>
        <time>2020-08-30T17:38:22Z</time>
      </trkpt>
      <trkpt lat="46.24885" lon="6.48186">
        <ele>1124</ele>
        <time>2020-08-30T17:38:24Z</time>
      </trkpt>
      <trkpt lat="46.2486" lon="6.48185">
        <ele>1123</ele>
        <time>2020-08-30T17:38:30Z</time>
      </trkpt>
      <trkpt lat="46.24836" lon="6.48194">
        <ele>1124</ele>
        <time>2020-08-30T17:38:36Z</time>
      </trkpt>
      <trkpt lat="46.24827" lon="6.48204">
        <ele>1124</ele>
        <time>2020-08-30T17:38:39Z</time>
      </trkpt>
      <trkpt lat="46.24795" lon="6.48282">
        <ele>1127</ele>
        <time>2020-08-30T17:38:53Z</time>
      </trkpt>
      <trkpt lat="46.24782" lon="6.48289">
        <ele>1123</ele>
        <time>2020-08-30T17:38:56Z</time>
      </trkpt>
      <trkpt lat="46.24762" lon="6.48293">
        <ele>1117</ele>
        <time>2020-08-30T17:39:01Z</time>
      </trkpt>
      <trkpt lat="46.24749" lon="6.48323">
        <ele>1115</ele>
        <time>2020-08-30T17:39:07Z</time>
      </trkpt>
      <trkpt lat="46.24745" lon="6.4835">
        <ele>1115</ele>
        <time>2020-08-30T17:39:11Z</time>
      </trkpt>
      <trkpt lat="46.24745" lon="6.48432">
        <ele>1116</ele>
        <time>2020-08-30T17:39:25Z</time>
      </trkpt>
      <trkpt lat="46.24742" lon="6.48446">
        <ele>1116</ele>
        <time>2020-08-30T17:39:27Z</time>
      </trkpt>
      <trkpt lat="46.24711" lon="6.48526">
        <ele>1113</ele>
        <time>2020-08-30T17:39:42Z</time>
      </trkpt>
      <trkpt lat="46.24703" lon="6.48535">
        <ele>1112</ele>
        <time>2020-08-30T17:39:44Z</time>
      </trkpt>
      <trkpt lat="46.24685" lon="6.48545">
        <ele>1109</ele>
        <time>2020-08-30T17:39:49Z</time>
      </trkpt>
      <trkpt lat="46.24673" lon="6.48559">
        <ele>1106</ele>
        <time>2020-08-30T17:39:52Z</time>
      </trkpt>
      <trkpt lat="46.2467" lon="6.48585">
        <ele>1106</ele>
        <time>2020-08-30T17:39:56Z</time>
      </trkpt>
      <trkpt lat="46.2467" lon="6.48612">
        <ele>1104</ele>
        <time>2020-08-30T17:40:01Z</time>
      </trkpt>
      <trkpt lat="46.24674" lon="6.48638">
        <ele>1103</ele>
        <time>2020-08-30T17:40:05Z</time>
      </trkpt>
      <trkpt lat="46.24702" lon="6.48775">
        <ele>1102</ele>
        <time>2020-08-30T17:40:28Z</time>
      </trkpt>
      <trkpt lat="46.24718" lon="6.48831">
        <ele>1103</ele>
        <time>2020-08-30T17:40:38Z</time>
      </trkpt>
      <trkpt lat="46.24723" lon="6.48927">
        <ele>1102</ele>
        <time>2020-08-30T17:40:54Z</time>
      </trkpt>
      <trkpt lat="46.2473" lon="6.48952">
        <ele>1102</ele>
        <time>2020-08-30T17:40:58Z</time>
      </trkpt>
      <trkpt lat="46.24741" lon="6.48976">
        <ele>1101</ele>
        <time>2020-08-30T17:41:03Z</time>
      </trkpt>
      <trkpt lat="46.24744" lon="6.48994">
        <ele>1100</ele>
        <time>2020-08-30T17:41:06Z</time>
      </trkpt>
      <trkpt lat="46.24743" lon="6.4901">
        <ele>1099</ele>
        <time>2020-08-30T17:41:08Z</time>
      </trkpt>
      <trkpt lat="46.24738" lon="6.49022">
        <ele>1098</ele>
        <time>2020-08-30T17:41:10Z</time>
      </trkpt>
      <trkpt lat="46.24704" lon="6.4907">
        <ele>1098</ele>
        <time>2020-08-30T17:41:21Z</time>
      </trkpt>
      <trkpt lat="46.24684" lon="6.49039">
        <ele>1098</ele>
        <time>2020-08-30T17:41:28Z</time>
      </trkpt>
      <trkpt lat="46.24686" lon="6.49063">
        <ele>1099</ele>
        <time>2020-08-30T17:41:32Z</time>
      </trkpt>
      <trkpt lat="46.24673" lon="6.49107">
        <ele>1105</ele>
        <time>2020-08-30T17:41:40Z</time>
      </trkpt>
      <trkpt lat="46.24639" lon="6.49122">
        <ele>1122</ele>
        <time>2020-08-30T17:41:48Z</time>
      </trkpt>
      <trkpt lat="46.24595" lon="6.49112">
        <ele>1138</ele>
        <time>2020-08-30T17:41:59Z</time>
      </trkpt>
      <trkpt lat="46.2456" lon="6.4909">
        <ele>1144</ele>
        <time>2020-08-30T17:42:08Z</time>
      </trkpt>
      <trkpt lat="46.24532" lon="6.4905">
        <ele>1141</ele>
        <time>2020-08-30T17:42:17Z</time>
      </trkpt>
      <trkpt lat="46.2447" lon="6.48944">
        <ele>1133</ele>
        <time>2020-08-30T17:42:39Z</time>
      </trkpt>
      <trkpt lat="46.24437" lon="6.48882">
        <ele>1132</ele>
        <time>2020-08-30T17:42:52Z</time>
      </trkpt>
      <trkpt lat="46.24433" lon="6.4879">
        <ele>1124</ele>
        <time>2020-08-30T17:43:07Z</time>
      </trkpt>
      <trkpt lat="46.24415" lon="6.48753">
        <ele>1127</ele>
        <time>2020-08-30T17:43:14Z</time>
      </trkpt>
      <trkpt lat="46.24415" lon="6.48723">
        <ele>1121</ele>
        <time>2020-08-30T17:43:19Z</time>
      </trkpt>
      <trkpt lat="46.24381" lon="6.48698">
        <ele>1120</ele>
        <time>2020-08-30T17:43:28Z</time>
      </trkpt>
      <trkpt lat="46.24341" lon="6.48657">
        <ele>1114</ele>
        <time>2020-08-30T17:43:39Z</time>
      </trkpt>
      <trkpt lat="46.24341" lon="6.48633">
        <ele>1109</ele>
        <time>2020-08-30T17:43:43Z</time>
      </trkpt>
      <trkpt lat="46.24387" lon="6.48614">
        <ele>1100</ele>
        <time>2020-08-30T17:43:54Z</time>
      </trkpt>
      <trkpt lat="46.24299" lon="6.48572">
        <ele>1106</ele>
        <time>2020-08-30T17:44:16Z</time>
      </trkpt>
      <trkpt lat="46.24268" lon="6.48551">
        <ele>1110</ele>
        <time>2020-08-30T17:44:24Z</time>
      </trkpt>
      <trkpt lat="46.2424" lon="6.48522">
        <ele>1113</ele>
        <time>2020-08-30T17:44:32Z</time>
      </trkpt>
      <trkpt lat="46.24166" lon="6.48382">
        <ele>1109</ele>
        <time>2020-08-30T17:45:00Z</time>
      </trkpt>
      <trkpt lat="46.24156" lon="6.48354">
        <ele>1109</ele>
        <time>2020-08-30T17:45:06Z</time>
      </trkpt>
      <trkpt lat="46.24152" lon="6.48325">
        <ele>1107</ele>
        <time>2020-08-30T17:45:10Z</time>
      </trkpt>
      <trkpt lat="46.24143" lon="6.48289">
        <ele>1106</ele>
        <time>2020-08-30T17:45:16Z</time>
      </trkpt>
      <trkpt lat="46.24037" lon="6.48208">
        <ele>1125</ele>
        <time>2020-08-30T17:45:44Z</time>
      </trkpt>
      <trkpt lat="46.23986" lon="6.48185">
        <ele>1133</ele>
        <time>2020-08-30T17:45:57Z</time>
      </trkpt>
      <trkpt lat="46.23982" lon="6.48161">
        <ele>1127</ele>
        <time>2020-08-30T17:46:01Z</time>
      </trkpt>
      <trkpt lat="46.23965" lon="6.48144">
        <ele>1126</ele>
        <time>2020-08-30T17:46:06Z</time>
      </trkpt>
      <trkpt lat="46.23931" lon="6.48153">
        <ele>1135</ele>
        <time>2020-08-30T17:46:14Z</time>
      </trkpt>
      <trkpt lat="46.23915" lon="6.48125">
        <ele>1131</ele>
        <time>2020-08-30T17:46:20Z</time>
      </trkpt>
      <trkpt lat="46.23864" lon="6.48101">
        <ele>1140</ele>
        <time>2020-08-30T17:46:32Z</time>
      </trkpt>
      <trkpt lat="46.23841" lon="6.48101">
        <ele>1146</ele>
        <time>2020-08-30T17:46:38Z</time>
      </trkpt>
      <trkpt lat="46.23842" lon="6.48075">
        <ele>1141</ele>
        <time>2020-08-30T17:46:42Z</time>
      </trkpt>
      <trkpt lat="46.23809" lon="6.48043">
        <ele>1146</ele>
        <time>2020-08-30T17:46:51Z</time>
      </trkpt>
      <trkpt lat="46.23792" lon="6.47992">
        <ele>1143</ele>
        <time>2020-08-30T17:47:00Z</time>
      </trkpt>
      <trkpt lat="46.23772" lon="6.47957">
        <ele>1145</ele>
        <time>2020-08-30T17:47:08Z</time>
      </trkpt>
      <trkpt lat="46.23746" lon="6.47938">
        <ele>1151</ele>
        <time>2020-08-30T17:47:14Z</time>
      </trkpt>
      <trkpt lat="46.23728" lon="6.47865">
        <ele>1156</ele>
        <time>2020-08-30T17:47:27Z</time>
      </trkpt>
      <trkpt lat="46.23734" lon="6.47794">
        <ele>1153</ele>
        <time>2020-08-30T17:47:38Z</time>
      </trkpt>
      <trkpt lat="46.23731" lon="6.4773">
        <ele>1154</ele>
        <time>2020-08-30T17:47:49Z</time>
      </trkpt>
      <trkpt lat="46.23744" lon="6.47672">
        <ele>1151</ele>
        <time>2020-08-30T17:47:59Z</time>
      </trkpt>
      <trkpt lat="46.23742" lon="6.47672">
        <ele>1152</ele>
        <time>2020-08-30T17:47:59Z</time>
      </trkpt>
      <trkpt lat="46.23746" lon="6.47618">
        <ele>1153</ele>
        <time>2020-08-30T17:48:08Z</time>
      </trkpt>
      <trkpt lat="46.23742" lon="6.47604">
        <ele>1155</ele>
        <time>2020-08-30T17:48:10Z</time>
      </trkpt>
      <trkpt lat="46.23734" lon="6.47591">
        <ele>1156</ele>
        <time>2020-08-30T17:48:13Z</time>
      </trkpt>
      <trkpt lat="46.23718" lon="6.47581">
        <ele>1157</ele>
        <time>2020-08-30T17:48:17Z</time>
      </trkpt>
      <trkpt lat="46.23705" lon="6.47579">
        <ele>1158</ele>
        <time>2020-08-30T17:48:20Z</time>
      </trkpt>
      <trkpt lat="46.23691" lon="6.47584">
        <ele>1159</ele>
        <time>2020-08-30T17:48:24Z</time>
      </trkpt>
      <trkpt lat="46.23679" lon="6.47593">
        <ele>1160</ele>
        <time>2020-08-30T17:48:27Z</time>
      </trkpt>
      <trkpt lat="46.23651" lon="6.47607">
        <ele>1164</ele>
        <time>2020-08-30T17:48:34Z</time>
      </trkpt>
      <trkpt lat="46.23614" lon="6.47618">
        <ele>1169</ele>
        <time>2020-08-30T17:48:43Z</time>
      </trkpt>
      <trkpt lat="46.23575" lon="6.47625">
        <ele>1176</ele>
        <time>2020-08-30T17:48:52Z</time>
      </trkpt>
      <trkpt lat="46.2352" lon="6.4763">
        <ele>1192</ele>
        <time>2020-08-30T17:49:05Z</time>
      </trkpt>
      <trkpt lat="46.23491" lon="6.47622">
        <ele>1194</ele>
        <time>2020-08-30T17:49:11Z</time>
      </trkpt>
      <trkpt lat="46.23466" lon="6.4761">
        <ele>1193</ele>
        <time>2020-08-30T17:49:18Z</time>
      </trkpt>
      <trkpt lat="46.23444" lon="6.47596">
        <ele>1191</ele>
        <time>2020-08-30T17:49:23Z</time>
      </trkpt>
      <trkpt lat="46.23418" lon="6.47589">
        <ele>1192</ele>
        <time>2020-08-30T17:49:29Z</time>
      </trkpt>
      <trkpt lat="46.23395" lon="6.47591">
        <ele>1191</ele>
        <time>2020-08-30T17:49:35Z</time>
      </trkpt>
      <trkpt lat="46.23371" lon="6.476">
        <ele>1190</ele>
        <time>2020-08-30T17:49:41Z</time>
      </trkpt>
      <trkpt lat="46.23343" lon="6.47604">
        <ele>1188</ele>
        <time>2020-08-30T17:49:47Z</time>
      </trkpt>
      <trkpt lat="46.23329" lon="6.47613">
        <ele>1188</ele>
        <time>2020-08-30T17:49:51Z</time>
      </trkpt>
      <trkpt lat="46.2329" lon="6.47655">
        <ele>1197</ele>
        <time>2020-08-30T17:50:02Z</time>
      </trkpt>
      <trkpt lat="46.23263" lon="6.47669">
        <ele>1201</ele>
        <time>2020-08-30T17:50:09Z</time>
      </trkpt>
      <trkpt lat="46.23241" lon="6.47668">
        <ele>1200</ele>
        <time>2020-08-30T17:50:14Z</time>
      </trkpt>
      <trkpt lat="46.23218" lon="6.4766">
        <ele>1196</ele>
        <time>2020-08-30T17:50:19Z</time>
      </trkpt>
      <trkpt lat="46.23178" lon="6.47633">
        <ele>1184</ele>
        <time>2020-08-30T17:50:30Z</time>
      </trkpt>
      <trkpt lat="46.23164" lon="6.47626">
        <ele>1181</ele>
        <time>2020-08-30T17:50:33Z</time>
      </trkpt>
      <trkpt lat="46.23151" lon="6.47624">
        <ele>1180</ele>
        <time>2020-08-30T17:50:36Z</time>
      </trkpt>
      <trkpt lat="46.23138" lon="6.47627">
        <ele>1180</ele>
        <time>2020-08-30T17:50:39Z</time>
      </trkpt>
      <trkpt lat="46.23124" lon="6.47634">
        <ele>1181</ele>
        <time>2020-08-30T17:50:43Z</time>
      </trkpt>
      <trkpt lat="46.23069" lon="6.47673">
        <ele>1186</ele>
        <time>2020-08-30T17:50:57Z</time>
      </trkpt>
      <trkpt lat="46.23037" lon="6.47684">
        <ele>1185</ele>
        <time>2020-08-30T17:51:05Z</time>
      </trkpt>
      <trkpt lat="46.22939" lon="6.47703">
        <ele>1181</ele>
        <time>2020-08-30T17:51:28Z</time>
      </trkpt>
      <trkpt lat="46.22924" lon="6.47708">
        <ele>1181</ele>
        <time>2020-08-30T17:51:31Z</time>
      </trkpt>
      <trkpt lat="46.2291" lon="6.47718">
        <ele>1182</ele>
        <time>2020-08-30T17:51:35Z</time>
      </trkpt>
      <trkpt lat="46.22898" lon="6.47735">
        <ele>1184</ele>
        <time>2020-08-30T17:51:39Z</time>
      </trkpt>
      <trkpt lat="46.22879" lon="6.4778">
        <ele>1190</ele>
        <time>2020-08-30T17:51:48Z</time>
      </trkpt>
      <trkpt lat="46.22863" lon="6.47781">
        <ele>1187</ele>
        <time>2020-08-30T17:51:51Z</time>
      </trkpt>
      <trkpt lat="46.22783" lon="6.47776">
        <ele>1181</ele>
        <time>2020-08-30T17:52:10Z</time>
      </trkpt>
      <trkpt lat="46.22679" lon="6.47764">
        <ele>1182</ele>
        <time>2020-08-30T17:52:34Z</time>
      </trkpt>
      <trkpt lat="46.22666" lon="6.4776">
        <ele>1182</ele>
        <time>2020-08-30T17:52:37Z</time>
      </trkpt>
      <trkpt lat="46.22628" lon="6.47736">
        <ele>1182</ele>
        <time>2020-08-30T17:52:47Z</time>
      </trkpt>
      <trkpt lat="46.22611" lon="6.47732">
        <ele>1182</ele>
        <time>2020-08-30T17:52:51Z</time>
      </trkpt>
      <trkpt lat="46.2259" lon="6.47736">
        <ele>1183</ele>
        <time>2020-08-30T17:52:56Z</time>
      </trkpt>
      <trkpt lat="46.22582" lon="6.47742">
        <ele>1184</ele>
        <time>2020-08-30T17:52:58Z</time>
      </trkpt>
      <trkpt lat="46.22575" lon="6.47754">
        <ele>1186</ele>
        <time>2020-08-30T17:53:01Z</time>
      </trkpt>
      <trkpt lat="46.22571" lon="6.47754">
        <ele>1186</ele>
        <time>2020-08-30T17:53:02Z</time>
      </trkpt>
      <trkpt lat="46.22564" lon="6.47748">
        <ele>1186</ele>
        <time>2020-08-30T17:53:04Z</time>
      </trkpt>
      <trkpt lat="46.22561" lon="6.47738">
        <ele>1186</ele>
        <time>2020-08-30T17:53:05Z</time>
      </trkpt>
      <trkpt lat="46.22568" lon="6.47727">
        <ele>1185</ele>
        <time>2020-08-30T17:53:08Z</time>
      </trkpt>
      <trkpt lat="46.22586" lon="6.47663">
        <ele>1180</ele>
        <time>2020-08-30T17:53:19Z</time>
      </trkpt>
      <trkpt lat="46.22588" lon="6.47651">
        <ele>1180</ele>
        <time>2020-08-30T17:53:21Z</time>
      </trkpt>
      <trkpt lat="46.22587" lon="6.47627">
        <ele>1181</ele>
        <time>2020-08-30T17:53:25Z</time>
      </trkpt>
      <trkpt lat="46.22572" lon="6.47579">
        <ele>1183</ele>
        <time>2020-08-30T17:53:33Z</time>
      </trkpt>
      <trkpt lat="46.22567" lon="6.47577">
        <ele>1183</ele>
        <time>2020-08-30T17:53:35Z</time>
      </trkpt>
      <trkpt lat="46.22561" lon="6.47578">
        <ele>1184</ele>
        <time>2020-08-30T17:53:36Z</time>
      </trkpt>
      <trkpt lat="46.22464" lon="6.47646">
        <ele>1194</ele>
        <time>2020-08-30T17:54:01Z</time>
      </trkpt>
      <trkpt lat="46.22424" lon="6.47671">
        <ele>1198</ele>
        <time>2020-08-30T17:54:11Z</time>
      </trkpt>
      <trkpt lat="46.22403" lon="6.47678">
        <ele>1200</ele>
        <time>2020-08-30T17:54:16Z</time>
      </trkpt>
      <trkpt lat="46.22335" lon="6.47689">
        <ele>1207</ele>
        <time>2020-08-30T17:54:32Z</time>
      </trkpt>
      <trkpt lat="46.22292" lon="6.47705">
        <ele>1210</ele>
        <time>2020-08-30T17:54:43Z</time>
      </trkpt>
      <trkpt lat="46.22266" lon="6.47718">
        <ele>1212</ele>
        <time>2020-08-30T17:54:49Z</time>
      </trkpt>
      <trkpt lat="46.22251" lon="6.4773">
        <ele>1213</ele>
        <time>2020-08-30T17:54:53Z</time>
      </trkpt>
      <trkpt lat="46.22237" lon="6.47751">
        <ele>1214</ele>
        <time>2020-08-30T17:54:58Z</time>
      </trkpt>
      <trkpt lat="46.22176" lon="6.47757">
        <ele>1222</ele>
        <time>2020-08-30T17:55:12Z</time>
      </trkpt>
      <trkpt lat="46.22105" lon="6.47867">
        <ele>1244</ele>
        <time>2020-08-30T17:55:36Z</time>
      </trkpt>
      <trkpt lat="46.22031" lon="6.47962">
        <ele>1265</ele>
        <time>2020-08-30T17:56:00Z</time>
      </trkpt>
      <trkpt lat="46.21974" lon="6.48013">
        <ele>1282</ele>
        <time>2020-08-30T17:56:15Z</time>
      </trkpt>
      <trkpt lat="46.21936" lon="6.48022">
        <ele>1291</ele>
        <time>2020-08-30T17:56:24Z</time>
      </trkpt>
      <trkpt lat="46.21903" lon="6.48069">
        <ele>1297</ele>
        <time>2020-08-30T17:56:35Z</time>
      </trkpt>
      <trkpt lat="46.21844" lon="6.48163">
        <ele>1299</ele>
        <time>2020-08-30T17:56:55Z</time>
      </trkpt>
      <trkpt lat="46.21787" lon="6.48206">
        <ele>1293</ele>
        <time>2020-08-30T17:57:11Z</time>
      </trkpt>
      <trkpt lat="46.21758" lon="6.48219">
        <ele>1290</ele>
        <time>2020-08-30T17:57:18Z</time>
      </trkpt>
      <trkpt lat="46.21713" lon="6.48168">
        <ele>1312</ele>
        <time>2020-08-30T17:57:31Z</time>
      </trkpt>
      <trkpt lat="46.21674" lon="6.48206">
        <ele>1309</ele>
        <time>2020-08-30T17:57:42Z</time>
      </trkpt>
      <trkpt lat="46.2163" lon="6.48232">
        <ele>1309</ele>
        <time>2020-08-30T17:57:53Z</time>
      </trkpt>
      <trkpt lat="46.21532" lon="6.48331">
        <ele>1279</ele>
        <time>2020-08-30T17:58:21Z</time>
      </trkpt>
      <trkpt lat="46.21452" lon="6.48318">
        <ele>1282</ele>
        <time>2020-08-30T17:58:40Z</time>
      </trkpt>
      <trkpt lat="46.21389" lon="6.48348">
        <ele>1272</ele>
        <time>2020-08-30T17:58:55Z</time>
      </trkpt>
      <trkpt lat="46.21345" lon="6.48356">
        <ele>1276</ele>
        <time>2020-08-30T17:59:06Z</time>
      </trkpt>
      <trkpt lat="46.213" lon="6.48382">
        <ele>1269</ele>
        <time>2020-08-30T17:59:17Z</time>
      </trkpt>
      <trkpt lat="46.2125" lon="6.48417">
        <ele>1263</ele>
        <time>2020-08-30T17:59:30Z</time>
      </trkpt>
      <trkpt lat="46.21181" lon="6.48421">
        <ele>1268</ele>
        <time>2020-08-30T17:59:46Z</time>
      </trkpt>
      <trkpt lat="46.21182" lon="6.48411">
        <ele>1269</ele>
        <time>2020-08-30T17:59:48Z</time>
      </trkpt>
      <trkpt lat="46.21142" lon="6.48413">
        <ele>1269</ele>
        <time>2020-08-30T17:59:57Z</time>
      </trkpt>
      <trkpt lat="46.21103" lon="6.48433">
        <ele>1267</ele>
        <time>2020-08-30T18:00:07Z</time>
      </trkpt>
      <trkpt lat="46.21094" lon="6.48441">
        <ele>1266</ele>
        <time>2020-08-30T18:00:09Z</time>
      </trkpt>
      <trkpt lat="46.2109" lon="6.4845">
        <ele>1265</ele>
        <time>2020-08-30T18:00:11Z</time>
      </trkpt>
      <trkpt lat="46.21086" lon="6.48452">
        <ele>1265</ele>
        <time>2020-08-30T18:00:12Z</time>
      </trkpt>
      <trkpt lat="46.21085" lon="6.48447">
        <ele>1265</ele>
        <time>2020-08-30T18:00:13Z</time>
      </trkpt>
      <trkpt lat="46.21078" lon="6.48441">
        <ele>1267</ele>
        <time>2020-08-30T18:00:15Z</time>
      </trkpt>
      <trkpt lat="46.21073" lon="6.4844">
        <ele>1267</ele>
        <time>2020-08-30T18:00:16Z</time>
      </trkpt>
      <trkpt lat="46.21039" lon="6.48445">
        <ele>1271</ele>
        <time>2020-08-30T18:00:24Z</time>
      </trkpt>
      <trkpt lat="46.2102" lon="6.48444">
        <ele>1274</ele>
        <time>2020-08-30T18:00:28Z</time>
      </trkpt>
      <trkpt lat="46.20988" lon="6.4843">
        <ele>1282</ele>
        <time>2020-08-30T18:00:36Z</time>
      </trkpt>
      <trkpt lat="46.20968" lon="6.48427">
        <ele>1287</ele>
        <time>2020-08-30T18:00:41Z</time>
      </trkpt>
      <trkpt lat="46.20939" lon="6.48426">
        <ele>1294</ele>
        <time>2020-08-30T18:00:47Z</time>
      </trkpt>
      <trkpt lat="46.20915" lon="6.48429">
        <ele>1299</ele>
        <time>2020-08-30T18:00:53Z</time>
      </trkpt>
      <trkpt lat="46.20886" lon="6.48442">
        <ele>1304</ele>
        <time>2020-08-30T18:01:00Z</time>
      </trkpt>
      <trkpt lat="46.20847" lon="6.48471">
        <ele>1311</ele>
        <time>2020-08-30T18:01:10Z</time>
      </trkpt>
      <trkpt lat="46.20831" lon="6.48489">
        <ele>1313</ele>
        <time>2020-08-30T18:01:15Z</time>
      </trkpt>
      <trkpt lat="46.20816" lon="6.48513">
        <ele>1315</ele>
        <time>2020-08-30T18:01:20Z</time>
      </trkpt>
      <trkpt lat="46.20797" lon="6.48534">
        <ele>1319</ele>
        <time>2020-08-30T18:01:26Z</time>
      </trkpt>
      <trkpt lat="46.20791" lon="6.48537">
        <ele>1319</ele>
        <time>2020-08-30T18:01:27Z</time>
      </trkpt>
      <trkpt lat="46.2077" lon="6.4854">
        <ele>1321</ele>
        <time>2020-08-30T18:01:32Z</time>
      </trkpt>
      <trkpt lat="46.20759" lon="6.48535">
        <ele>1322</ele>
        <time>2020-08-30T18:01:35Z</time>
      </trkpt>
      <trkpt lat="46.20722" lon="6.48508">
        <ele>1319</ele>
        <time>2020-08-30T18:01:45Z</time>
      </trkpt>
      <trkpt lat="46.20681" lon="6.48456">
        <ele>1317</ele>
        <time>2020-08-30T18:01:58Z</time>
      </trkpt>
      <trkpt lat="46.20675" lon="6.48444">
        <ele>1317</ele>
        <time>2020-08-30T18:02:00Z</time>
      </trkpt>
      <trkpt lat="46.20665" lon="6.48408">
        <ele>1318</ele>
        <time>2020-08-30T18:02:06Z</time>
      </trkpt>
      <trkpt lat="46.20664" lon="6.48396">
        <ele>1318</ele>
        <time>2020-08-30T18:02:08Z</time>
      </trkpt>
      <trkpt lat="46.20666" lon="6.48385">
        <ele>1320</ele>
        <time>2020-08-30T18:02:10Z</time>
      </trkpt>
      <trkpt lat="46.20669" lon="6.48376">
        <ele>1321</ele>
        <time>2020-08-30T18:02:12Z</time>
      </trkpt>
      <trkpt lat="46.20687" lon="6.48353">
        <ele>1324</ele>
        <time>2020-08-30T18:02:17Z</time>
      </trkpt>
      <trkpt lat="46.207" lon="6.48343">
        <ele>1327</ele>
        <time>2020-08-30T18:02:21Z</time>
      </trkpt>
      <trkpt lat="46.20709" lon="6.48341">
        <ele>1328</ele>
        <time>2020-08-30T18:02:23Z</time>
      </trkpt>
      <trkpt lat="46.20759" lon="6.48346">
        <ele>1333</ele>
        <time>2020-08-30T18:02:34Z</time>
      </trkpt>
      <trkpt lat="46.20807" lon="6.48359">
        <ele>1331</ele>
        <time>2020-08-30T18:02:46Z</time>
      </trkpt>
      <trkpt lat="46.20818" lon="6.4836">
        <ele>1330</ele>
        <time>2020-08-30T18:02:48Z</time>
      </trkpt>
      <trkpt lat="46.20826" lon="6.48358">
        <ele>1331</ele>
        <time>2020-08-30T18:02:50Z</time>
      </trkpt>
      <trkpt lat="46.20832" lon="6.48354">
        <ele>1331</ele>
        <time>2020-08-30T18:02:52Z</time>
      </trkpt>
      <trkpt lat="46.20835" lon="6.48345">
        <ele>1332</ele>
        <time>2020-08-30T18:02:53Z</time>
      </trkpt>
      <trkpt lat="46.20834" lon="6.48332">
        <ele>1334</ele>
        <time>2020-08-30T18:02:56Z</time>
      </trkpt>
      <trkpt lat="46.20827" lon="6.48304">
        <ele>1334</ele>
        <time>2020-08-30T18:03:00Z</time>
      </trkpt>
      <trkpt lat="46.20821" lon="6.48288">
        <ele>1334</ele>
        <time>2020-08-30T18:03:03Z</time>
      </trkpt>
      <trkpt lat="46.20807" lon="6.48277">
        <ele>1336</ele>
        <time>2020-08-30T18:03:07Z</time>
      </trkpt>
      <trkpt lat="46.20753" lon="6.48268">
        <ele>1345</ele>
        <time>2020-08-30T18:03:20Z</time>
      </trkpt>
      <trkpt lat="46.20737" lon="6.48259">
        <ele>1345</ele>
        <time>2020-08-30T18:03:24Z</time>
      </trkpt>
      <trkpt lat="46.20718" lon="6.48238">
        <ele>1347</ele>
        <time>2020-08-30T18:03:29Z</time>
      </trkpt>
      <trkpt lat="46.20706" lon="6.48207">
        <ele>1351</ele>
        <time>2020-08-30T18:03:35Z</time>
      </trkpt>
      <trkpt lat="46.20692" lon="6.4814">
        <ele>1360</ele>
        <time>2020-08-30T18:03:46Z</time>
      </trkpt>
      <trkpt lat="46.20686" lon="6.48123">
        <ele>1363</ele>
        <time>2020-08-30T18:03:50Z</time>
      </trkpt>
      <trkpt lat="46.20679" lon="6.48111">
        <ele>1364</ele>
        <time>2020-08-30T18:03:52Z</time>
      </trkpt>
      <trkpt lat="46.20634" lon="6.48055">
        <ele>1368</ele>
        <time>2020-08-30T18:04:06Z</time>
      </trkpt>
      <trkpt lat="46.20616" lon="6.48039">
        <ele>1369</ele>
        <time>2020-08-30T18:04:11Z</time>
      </trkpt>
      <trkpt lat="46.206" lon="6.48019">
        <ele>1370</ele>
        <time>2020-08-30T18:04:16Z</time>
      </trkpt>
      <trkpt lat="46.20592" lon="6.48003">
        <ele>1371</ele>
        <time>2020-08-30T18:04:19Z</time>
      </trkpt>
      <trkpt lat="46.20582" lon="6.47971">
        <ele>1374</ele>
        <time>2020-08-30T18:04:25Z</time>
      </trkpt>
      <trkpt lat="46.20576" lon="6.47942">
        <ele>1378</ele>
        <time>2020-08-30T18:04:30Z</time>
      </trkpt>
      <trkpt lat="46.20572" lon="6.47937">
        <ele>1379</ele>
        <time>2020-08-30T18:04:31Z</time>
      </trkpt>
      <trkpt lat="46.20433" lon="6.47923">
        <ele>1389</ele>
        <time>2020-08-30T18:05:03Z</time>
      </trkpt>
      <trkpt lat="46.20409" lon="6.47966">
        <ele>1383</ele>
        <time>2020-08-30T18:05:12Z</time>
      </trkpt>
      <trkpt lat="46.20383" lon="6.47987">
        <ele>1381</ele>
        <time>2020-08-30T18:05:19Z</time>
      </trkpt>
      <trkpt lat="46.20374" lon="6.47957">
        <ele>1385</ele>
        <time>2020-08-30T18:05:24Z</time>
      </trkpt>
      <trkpt lat="46.20341" lon="6.47974">
        <ele>1385</ele>
        <time>2020-08-30T18:05:33Z</time>
      </trkpt>
      <trkpt lat="46.20299" lon="6.48">
        <ele>1382</ele>
        <time>2020-08-30T18:05:43Z</time>
      </trkpt>
      <trkpt lat="46.20282" lon="6.48017">
        <ele>1377</ele>
        <time>2020-08-30T18:05:48Z</time>
      </trkpt>
      <trkpt lat="46.20234" lon="6.48026">
        <ele>1371</ele>
        <time>2020-08-30T18:05:59Z</time>
      </trkpt>
      <trkpt lat="46.20219" lon="6.4806">
        <ele>1365</ele>
        <time>2020-08-30T18:06:06Z</time>
      </trkpt>
      <trkpt lat="46.20249" lon="6.48088">
        <ele>1363</ele>
        <time>2020-08-30T18:06:14Z</time>
      </trkpt>
      <trkpt lat="46.20234" lon="6.48142">
        <ele>1351</ele>
        <time>2020-08-30T18:06:24Z</time>
      </trkpt>
      <trkpt lat="46.20205" lon="6.48159">
        <ele>1347</ele>
        <time>2020-08-30T18:06:31Z</time>
      </trkpt>
      <trkpt lat="46.20187" lon="6.4818">
        <ele>1345</ele>
        <time>2020-08-30T18:06:36Z</time>
      </trkpt>
      <trkpt lat="46.20185" lon="6.48211">
        <ele>1341</ele>
        <time>2020-08-30T18:06:41Z</time>
      </trkpt>
      <trkpt lat="46.20174" lon="6.48232">
        <ele>1339</ele>
        <time>2020-08-30T18:06:46Z</time>
      </trkpt>
      <trkpt lat="46.20141" lon="6.48247">
        <ele>1339</ele>
        <time>2020-08-30T18:06:54Z</time>
      </trkpt>
      <trkpt lat="46.20126" lon="6.48249">
        <ele>1340</ele>
        <time>2020-08-30T18:06:57Z</time>
      </trkpt>
      <trkpt lat="46.20092" lon="6.48226">
        <ele>1340</ele>
        <time>2020-08-30T18:07:06Z</time>
      </trkpt>
      <trkpt lat="46.20061" lon="6.4818">
        <ele>1333</ele>
        <time>2020-08-30T18:07:16Z</time>
      </trkpt>
      <trkpt lat="46.20035" lon="6.48174">
        <ele>1329</ele>
        <time>2020-08-30T18:07:23Z</time>
      </trkpt>
      <trkpt lat="46.19988" lon="6.48135">
        <ele>1320</ele>
        <time>2020-08-30T18:07:35Z</time>
      </trkpt>
      <trkpt lat="46.1997" lon="6.4814">
        <ele>1320</ele>
        <time>2020-08-30T18:07:40Z</time>
      </trkpt>
      <trkpt lat="46.19936" lon="6.4806">
        <ele>1311</ele>
        <time>2020-08-30T18:07:55Z</time>
      </trkpt>
      <trkpt lat="46.19869" lon="6.47872">
        <ele>1306</ele>
        <time>2020-08-30T18:08:29Z</time>
      </trkpt>
      <trkpt lat="46.19811" lon="6.4782">
        <ele>1305</ele>
        <time>2020-08-30T18:08:45Z</time>
      </trkpt>
      <trkpt lat="46.19786" lon="6.4779">
        <ele>1306</ele>
        <time>2020-08-30T18:08:52Z</time>
      </trkpt>
      <trkpt lat="46.19756" lon="6.47771">
        <ele>1307</ele>
        <time>2020-08-30T18:09:00Z</time>
      </trkpt>
      <trkpt lat="46.19734" lon="6.47732">
        <ele>1308</ele>
        <time>2020-08-30T18:09:08Z</time>
      </trkpt>
      <trkpt lat="46.19709" lon="6.47713">
        <ele>1305</ele>
        <time>2020-08-30T18:09:15Z</time>
      </trkpt>
      <trkpt lat="46.19691" lon="6.47685">
        <ele>1303</ele>
        <time>2020-08-30T18:09:21Z</time>
      </trkpt>
      <trkpt lat="46.19685" lon="6.47638">
        <ele>1303</ele>
        <time>2020-08-30T18:09:29Z</time>
      </trkpt>
      <trkpt lat="46.19657" lon="6.4758">
        <ele>1298</ele>
        <time>2020-08-30T18:09:40Z</time>
      </trkpt>
      <trkpt lat="46.19654" lon="6.47581">
        <ele>1298</ele>
        <time>2020-08-30T18:09:41Z</time>
      </trkpt>
      <trkpt lat="46.1965" lon="6.47557">
        <ele>1296</ele>
        <time>2020-08-30T18:09:45Z</time>
      </trkpt>
      <trkpt lat="46.1964" lon="6.47479">
        <ele>1293</ele>
        <time>2020-08-30T18:09:58Z</time>
      </trkpt>
      <trkpt lat="46.19649" lon="6.4744">
        <ele>1294</ele>
        <time>2020-08-30T18:10:04Z</time>
      </trkpt>
      <trkpt lat="46.19653" lon="6.47409">
        <ele>1293</ele>
        <time>2020-08-30T18:10:09Z</time>
      </trkpt>
      <trkpt lat="46.19651" lon="6.47381">
        <ele>1293</ele>
        <time>2020-08-30T18:10:14Z</time>
      </trkpt>
      <trkpt lat="46.19642" lon="6.47336">
        <ele>1290</ele>
        <time>2020-08-30T18:10:22Z</time>
      </trkpt>
      <trkpt lat="46.19621" lon="6.47267">
        <ele>1285</ele>
        <time>2020-08-30T18:10:34Z</time>
      </trkpt>
      <trkpt lat="46.19602" lon="6.4719">
        <ele>1279</ele>
        <time>2020-08-30T18:10:47Z</time>
      </trkpt>
      <trkpt lat="46.19595" lon="6.47096">
        <ele>1277</ele>
        <time>2020-08-30T18:11:02Z</time>
      </trkpt>
      <trkpt lat="46.19627" lon="6.47063">
        <ele>1277</ele>
        <time>2020-08-30T18:11:11Z</time>
      </trkpt>
      <trkpt lat="46.19653" lon="6.47025">
        <ele>1272</ele>
        <time>2020-08-30T18:11:20Z</time>
      </trkpt>
      <trkpt lat="46.1967" lon="6.46995">
        <ele>1265</ele>
        <time>2020-08-30T18:11:26Z</time>
      </trkpt>
      <trkpt lat="46.19696" lon="6.46982">
        <ele>1263</ele>
        <time>2020-08-30T18:11:33Z</time>
      </trkpt>
      <trkpt lat="46.19745" lon="6.46969">
        <ele>1262</ele>
        <time>2020-08-30T18:11:44Z</time>
      </trkpt>
      <trkpt lat="46.19766" lon="6.46966">
        <ele>1264</ele>
        <time>2020-08-30T18:11:49Z</time>
      </trkpt>
      <trkpt lat="46.19772" lon="6.46959">
        <ele>1264</ele>
        <time>2020-08-30T18:11:51Z</time>
      </trkpt>
      <trkpt lat="46.19773" lon="6.46949">
        <ele>1262</ele>
        <time>2020-08-30T18:11:53Z</time>
      </trkpt>
      <trkpt lat="46.19761" lon="6.46935">
        <ele>1258</ele>
        <time>2020-08-30T18:11:56Z</time>
      </trkpt>
      <trkpt lat="46.19716" lon="6.46905">
        <ele>1250</ele>
        <time>2020-08-30T18:12:08Z</time>
      </trkpt>
      <trkpt lat="46.19694" lon="6.46884">
        <ele>1247</ele>
        <time>2020-08-30T18:12:14Z</time>
      </trkpt>
      <trkpt lat="46.19669" lon="6.46855">
        <ele>1243</ele>
        <time>2020-08-30T18:12:22Z</time>
      </trkpt>
      <trkpt lat="46.19693" lon="6.46822">
        <ele>1243</ele>
        <time>2020-08-30T18:12:29Z</time>
      </trkpt>
      <trkpt lat="46.19705" lon="6.46783">
        <ele>1245</ele>
        <time>2020-08-30T18:12:36Z</time>
      </trkpt>
      <trkpt lat="46.19716" lon="6.46664">
        <ele>1250</ele>
        <time>2020-08-30T18:12:56Z</time>
      </trkpt>
      <trkpt lat="46.19784" lon="6.46266">
        <ele>1252</ele>
        <time>2020-08-30T18:14:02Z</time>
      </trkpt>
      <trkpt lat="46.19739" lon="6.46205">
        <ele>1249</ele>
        <time>2020-08-30T18:14:16Z</time>
      </trkpt>
      <trkpt lat="46.19722" lon="6.46192">
        <ele>1249</ele>
        <time>2020-08-30T18:14:21Z</time>
      </trkpt>
      <trkpt lat="46.19695" lon="6.46144">
        <ele>1249</ele>
        <time>2020-08-30T18:14:31Z</time>
      </trkpt>
      <trkpt lat="46.19689" lon="6.46166">
        <ele>1247</ele>
        <time>2020-08-30T18:14:35Z</time>
      </trkpt>
      <trkpt lat="46.19659" lon="6.46154">
        <ele>1249</ele>
        <time>2020-08-30T18:14:42Z</time>
      </trkpt>
      <trkpt lat="46.19566" lon="6.46134">
        <ele>1257</ele>
        <time>2020-08-30T18:15:04Z</time>
      </trkpt>
      <trkpt lat="46.19507" lon="6.46137">
        <ele>1259</ele>
        <time>2020-08-30T18:15:18Z</time>
      </trkpt>
      <trkpt lat="46.19467" lon="6.46099">
        <ele>1267</ele>
        <time>2020-08-30T18:15:29Z</time>
      </trkpt>
      <trkpt lat="46.19416" lon="6.46114">
        <ele>1269</ele>
        <time>2020-08-30T18:15:41Z</time>
      </trkpt>
      <trkpt lat="46.19373" lon="6.46133">
        <ele>1269</ele>
        <time>2020-08-30T18:15:51Z</time>
      </trkpt>
      <trkpt lat="46.1934" lon="6.46133">
        <ele>1272</ele>
        <time>2020-08-30T18:15:59Z</time>
      </trkpt>
      <trkpt lat="46.19302" lon="6.46166">
        <ele>1269</ele>
        <time>2020-08-30T18:16:10Z</time>
      </trkpt>
      <trkpt lat="46.19279" lon="6.46191">
        <ele>1267</ele>
        <time>2020-08-30T18:16:16Z</time>
      </trkpt>
      <trkpt lat="46.19268" lon="6.46245">
        <ele>1263</ele>
        <time>2020-08-30T18:16:25Z</time>
      </trkpt>
      <trkpt lat="46.19226" lon="6.46316">
        <ele>1256</ele>
        <time>2020-08-30T18:16:40Z</time>
      </trkpt>
      <trkpt lat="46.19174" lon="6.46357">
        <ele>1254</ele>
        <time>2020-08-30T18:16:54Z</time>
      </trkpt>
      <trkpt lat="46.19138" lon="6.46378">
        <ele>1255</ele>
        <time>2020-08-30T18:17:03Z</time>
      </trkpt>
      <trkpt lat="46.19123" lon="6.46427">
        <ele>1255</ele>
        <time>2020-08-30T18:17:12Z</time>
      </trkpt>
      <trkpt lat="46.19113" lon="6.4658">
        <ele>1248</ele>
        <time>2020-08-30T18:17:37Z</time>
      </trkpt>
      <trkpt lat="46.19055" lon="6.46683">
        <ele>1252</ele>
        <time>2020-08-30T18:17:58Z</time>
      </trkpt>
      <trkpt lat="46.19039" lon="6.46743">
        <ele>1248</ele>
        <time>2020-08-30T18:18:09Z</time>
      </trkpt>
      <trkpt lat="46.19033" lon="6.4679">
        <ele>1243</ele>
        <time>2020-08-30T18:18:16Z</time>
      </trkpt>
      <trkpt lat="46.19012" lon="6.46818">
        <ele>1239</ele>
        <time>2020-08-30T18:18:23Z</time>
      </trkpt>
      <trkpt lat="46.19006" lon="6.46895">
        <ele>1236</ele>
        <time>2020-08-30T18:18:36Z</time>
      </trkpt>
      <trkpt lat="46.18988" lon="6.46925">
        <ele>1235</ele>
        <time>2020-08-30T18:18:42Z</time>
      </trkpt>
      <trkpt lat="46.18988" lon="6.46942">
        <ele>1235</ele>
        <time>2020-08-30T18:18:45Z</time>
      </trkpt>
      <trkpt lat="46.19022" lon="6.47007">
        <ele>1235</ele>
        <time>2020-08-30T18:18:58Z</time>
      </trkpt>
      <trkpt lat="46.19034" lon="6.47052">
        <ele>1234</ele>
        <time>2020-08-30T18:19:06Z</time>
      </trkpt>
      <trkpt lat="46.19067" lon="6.47125">
        <ele>1233</ele>
        <time>2020-08-30T18:19:20Z</time>
      </trkpt>
      <trkpt lat="46.19049" lon="6.47196">
        <ele>1232</ele>
        <time>2020-08-30T18:19:32Z</time>
      </trkpt>
      <trkpt lat="46.19042" lon="6.47284">
        <ele>1233</ele>
        <time>2020-08-30T18:19:46Z</time>
      </trkpt>
      <trkpt lat="46.19028" lon="6.47354">
        <ele>1239</ele>
        <time>2020-08-30T18:19:58Z</time>
      </trkpt>
      <trkpt lat="46.18969" lon="6.47376">
        <ele>1250</ele>
        <time>2020-08-30T18:20:12Z</time>
      </trkpt>
      <trkpt lat="46.18941" lon="6.47378">
        <ele>1254</ele>
        <time>2020-08-30T18:20:19Z</time>
      </trkpt>
      <trkpt lat="46.18902" lon="6.47339">
        <ele>1250</ele>
        <time>2020-08-30T18:20:30Z</time>
      </trkpt>
      <trkpt lat="46.18849" lon="6.47329">
        <ele>1256</ele>
        <time>2020-08-30T18:20:43Z</time>
      </trkpt>
      <trkpt lat="46.18804" lon="6.47226">
        <ele>1243</ele>
        <time>2020-08-30T18:21:02Z</time>
      </trkpt>
      <trkpt lat="46.18794" lon="6.47208">
        <ele>1241</ele>
        <time>2020-08-30T18:21:06Z</time>
      </trkpt>
      <trkpt lat="46.1876" lon="6.4717">
        <ele>1236</ele>
        <time>2020-08-30T18:21:16Z</time>
      </trkpt>
      <trkpt lat="46.18716" lon="6.47138">
        <ele>1242</ele>
        <time>2020-08-30T18:21:27Z</time>
      </trkpt>
      <trkpt lat="46.18697" lon="6.47063">
        <ele>1237</ele>
        <time>2020-08-30T18:21:40Z</time>
      </trkpt>
      <trkpt lat="46.18675" lon="6.47028">
        <ele>1239</ele>
        <time>2020-08-30T18:21:48Z</time>
      </trkpt>
      <trkpt lat="46.18651" lon="6.4702">
        <ele>1241</ele>
        <time>2020-08-30T18:21:54Z</time>
      </trkpt>
      <trkpt lat="46.18595" lon="6.46975">
        <ele>1245</ele>
        <time>2020-08-30T18:22:09Z</time>
      </trkpt>
      <trkpt lat="46.18709" lon="6.46891">
        <ele>1247</ele>
        <time>2020-08-30T18:22:39Z</time>
      </trkpt>
      <trkpt lat="46.18666" lon="6.4688">
        <ele>1253</ele>
        <time>2020-08-30T18:22:49Z</time>
      </trkpt>
      <trkpt lat="46.18617" lon="6.46884">
        <ele>1252</ele>
        <time>2020-08-30T18:23:00Z</time>
      </trkpt>
      <trkpt lat="46.18586" lon="6.4688">
        <ele>1252</ele>
        <time>2020-08-30T18:23:08Z</time>
      </trkpt>
      <trkpt lat="46.18605" lon="6.46827">
        <ele>1262</ele>
        <time>2020-08-30T18:23:17Z</time>
      </trkpt>
      <trkpt lat="46.18586" lon="6.46794">
        <ele>1271</ele>
        <time>2020-08-30T18:23:24Z</time>
      </trkpt>
      <trkpt lat="46.18552" lon="6.46771">
        <ele>1268</ele>
        <time>2020-08-30T18:23:33Z</time>
      </trkpt>
      <trkpt lat="46.18531" lon="6.46732">
        <ele>1273</ele>
        <time>2020-08-30T18:23:41Z</time>
      </trkpt>
      <trkpt lat="46.18507" lon="6.46698">
        <ele>1276</ele>
        <time>2020-08-30T18:23:49Z</time>
      </trkpt>
      <trkpt lat="46.1847" lon="6.46625">
        <ele>1285</ele>
        <time>2020-08-30T18:24:03Z</time>
      </trkpt>
      <trkpt lat="46.18455" lon="6.4659">
        <ele>1288</ele>
        <time>2020-08-30T18:24:10Z</time>
      </trkpt>
      <trkpt lat="46.18445" lon="6.46554">
        <ele>1293</ele>
        <time>2020-08-30T18:24:16Z</time>
      </trkpt>
      <trkpt lat="46.18427" lon="6.46526">
        <ele>1294</ele>
        <time>2020-08-30T18:24:22Z</time>
      </trkpt>
      <trkpt lat="46.18402" lon="6.46511">
        <ele>1293</ele>
        <time>2020-08-30T18:24:29Z</time>
      </trkpt>
      <trkpt lat="46.18369" lon="6.465">
        <ele>1291</ele>
        <time>2020-08-30T18:24:37Z</time>
      </trkpt>
      <trkpt lat="46.18342" lon="6.46481">
        <ele>1289</ele>
        <time>2020-08-30T18:24:44Z</time>
      </trkpt>
      <trkpt lat="46.18298" lon="6.46464">
        <ele>1289</ele>
        <time>2020-08-30T18:24:54Z</time>
      </trkpt>
      <trkpt lat="46.18299" lon="6.46404">
        <ele>1294</ele>
        <time>2020-08-30T18:25:04Z</time>
      </trkpt>
      <trkpt lat="46.18295" lon="6.46357">
        <ele>1290</ele>
        <time>2020-08-30T18:25:12Z</time>
      </trkpt>
      <trkpt lat="46.18253" lon="6.46279">
        <ele>1283</ele>
        <time>2020-08-30T18:25:28Z</time>
      </trkpt>
      <trkpt lat="46.18173" lon="6.46232">
        <ele>1283</ele>
        <time>2020-08-30T18:25:48Z</time>
      </trkpt>
      <trkpt lat="46.18139" lon="6.46232">
        <ele>1285</ele>
        <time>2020-08-30T18:25:56Z</time>
      </trkpt>
      <trkpt lat="46.18116" lon="6.46219">
        <ele>1285</ele>
        <time>2020-08-30T18:26:02Z</time>
      </trkpt>
      <trkpt lat="46.18104" lon="6.46215">
        <ele>1285</ele>
        <time>2020-08-30T18:26:04Z</time>
      </trkpt>
      <trkpt lat="46.1806" lon="6.46163">
        <ele>1277</ele>
        <time>2020-08-30T18:26:18Z</time>
      </trkpt>
      <trkpt lat="46.18021" lon="6.46166">
        <ele>1277</ele>
        <time>2020-08-30T18:26:27Z</time>
      </trkpt>
      <trkpt lat="46.17991" lon="6.46131">
        <ele>1272</ele>
        <time>2020-08-30T18:26:36Z</time>
      </trkpt>
      <trkpt lat="46.17962" lon="6.46069">
        <ele>1265</ele>
        <time>2020-08-30T18:26:48Z</time>
      </trkpt>
      <trkpt lat="46.17938" lon="6.4606">
        <ele>1263</ele>
        <time>2020-08-30T18:26:54Z</time>
      </trkpt>
      <trkpt lat="46.17886" lon="6.46078">
        <ele>1255</ele>
        <time>2020-08-30T18:27:06Z</time>
      </trkpt>
      <trkpt lat="46.17831" lon="6.46151">
        <ele>1248</ele>
        <time>2020-08-30T18:27:24Z</time>
      </trkpt>
      <trkpt lat="46.17757" lon="6.46187">
        <ele>1244</ele>
        <time>2020-08-30T18:27:42Z</time>
      </trkpt>
      <trkpt lat="46.17699" lon="6.46191">
        <ele>1240</ele>
        <time>2020-08-30T18:27:55Z</time>
      </trkpt>
      <trkpt lat="46.17694" lon="6.46127">
        <ele>1242</ele>
        <time>2020-08-30T18:28:06Z</time>
      </trkpt>
      <trkpt lat="46.17723" lon="6.46106">
        <ele>1242</ele>
        <time>2020-08-30T18:28:13Z</time>
      </trkpt>
      <trkpt lat="46.17755" lon="6.4606">
        <ele>1244</ele>
        <time>2020-08-30T18:28:24Z</time>
      </trkpt>
      <trkpt lat="46.17775" lon="6.45975">
        <ele>1252</ele>
        <time>2020-08-30T18:28:39Z</time>
      </trkpt>
      <trkpt lat="46.17772" lon="6.45938">
        <ele>1255</ele>
        <time>2020-08-30T18:28:45Z</time>
      </trkpt>
      <trkpt lat="46.17752" lon="6.45893">
        <ele>1253</ele>
        <time>2020-08-30T18:28:53Z</time>
      </trkpt>
      <trkpt lat="46.1776" lon="6.45812">
        <ele>1248</ele>
        <time>2020-08-30T18:29:06Z</time>
      </trkpt>
      <trkpt lat="46.17742" lon="6.45779">
        <ele>1245</ele>
        <time>2020-08-30T18:29:13Z</time>
      </trkpt>
      <trkpt lat="46.17776" lon="6.45721">
        <ele>1241</ele>
        <time>2020-08-30T18:29:26Z</time>
      </trkpt>
      <trkpt lat="46.17769" lon="6.45702">
        <ele>1240</ele>
        <time>2020-08-30T18:29:29Z</time>
      </trkpt>
      <trkpt lat="46.17699" lon="6.45674">
        <ele>1237</ele>
        <time>2020-08-30T18:29:46Z</time>
      </trkpt>
      <trkpt lat="46.1763" lon="6.45672">
        <ele>1234</ele>
        <time>2020-08-30T18:30:02Z</time>
      </trkpt>
      <trkpt lat="46.17622" lon="6.45618">
        <ele>1233</ele>
        <time>2020-08-30T18:30:11Z</time>
      </trkpt>
      <trkpt lat="46.17607" lon="6.45591">
        <ele>1230</ele>
        <time>2020-08-30T18:30:17Z</time>
      </trkpt>
      <trkpt lat="46.17573" lon="6.4555">
        <ele>1226</ele>
        <time>2020-08-30T18:30:27Z</time>
      </trkpt>
      <trkpt lat="46.17546" lon="6.45455">
        <ele>1221</ele>
        <time>2020-08-30T18:30:44Z</time>
      </trkpt>
      <trkpt lat="46.17553" lon="6.45423">
        <ele>1218</ele>
        <time>2020-08-30T18:30:49Z</time>
      </trkpt>
      <trkpt lat="46.17611" lon="6.45352">
        <ele>1219</ele>
        <time>2020-08-30T18:31:07Z</time>
      </trkpt>
      <trkpt lat="46.17671" lon="6.45331">
        <ele>1224</ele>
        <time>2020-08-30T18:31:21Z</time>
      </trkpt>
      <trkpt lat="46.17706" lon="6.45292">
        <ele>1223</ele>
        <time>2020-08-30T18:31:31Z</time>
      </trkpt>
      <trkpt lat="46.17827" lon="6.45224">
        <ele>1218</ele>
        <time>2020-08-30T18:32:02Z</time>
      </trkpt>
      <trkpt lat="46.17922" lon="6.45217">
        <ele>1217</ele>
        <time>2020-08-30T18:32:24Z</time>
      </trkpt>
      <trkpt lat="46.17957" lon="6.45151">
        <ele>1214</ele>
        <time>2020-08-30T18:32:37Z</time>
      </trkpt>
      <trkpt lat="46.18024" lon="6.4508">
        <ele>1209</ele>
        <time>2020-08-30T18:32:57Z</time>
      </trkpt>
      <trkpt lat="46.18045" lon="6.45041">
        <ele>1203</ele>
        <time>2020-08-30T18:33:05Z</time>
      </trkpt>
      <trkpt lat="46.18082" lon="6.44988">
        <ele>1191</ele>
        <time>2020-08-30T18:33:17Z</time>
      </trkpt>
      <trkpt lat="46.18117" lon="6.4499">
        <ele>1191</ele>
        <time>2020-08-30T18:33:25Z</time>
      </trkpt>
      <trkpt lat="46.18162" lon="6.44954">
        <ele>1188</ele>
        <time>2020-08-30T18:33:37Z</time>
      </trkpt>
      <trkpt lat="46.18168" lon="6.4491">
        <ele>1185</ele>
        <time>2020-08-30T18:33:44Z</time>
      </trkpt>
      <trkpt lat="46.18181" lon="6.44903">
        <ele>1185</ele>
        <time>2020-08-30T18:33:48Z</time>
      </trkpt>
      <trkpt lat="46.18193" lon="6.44889">
        <ele>1184</ele>
        <time>2020-08-30T18:33:51Z</time>
      </trkpt>
      <trkpt lat="46.18239" lon="6.44807">
        <ele>1183</ele>
        <time>2020-08-30T18:34:08Z</time>
      </trkpt>
      <trkpt lat="46.18281" lon="6.44764">
        <ele>1187</ele>
        <time>2020-08-30T18:34:20Z</time>
      </trkpt>
      <trkpt lat="46.1829" lon="6.44752">
        <ele>1188</ele>
        <time>2020-08-30T18:34:23Z</time>
      </trkpt>
      <trkpt lat="46.18303" lon="6.44724">
        <ele>1188</ele>
        <time>2020-08-30T18:34:29Z</time>
      </trkpt>
      <trkpt lat="46.18328" lon="6.44647">
        <ele>1185</ele>
        <time>2020-08-30T18:34:42Z</time>
      </trkpt>
      <trkpt lat="46.18333" lon="6.44625">
        <ele>1183</ele>
        <time>2020-08-30T18:34:46Z</time>
      </trkpt>
      <trkpt lat="46.18349" lon="6.4445">
        <ele>1179</ele>
        <time>2020-08-30T18:35:15Z</time>
      </trkpt>
      <trkpt lat="46.18395" lon="6.44342">
        <ele>1176</ele>
        <time>2020-08-30T18:35:35Z</time>
      </trkpt>
      <trkpt lat="46.18411" lon="6.44328">
        <ele>1177</ele>
        <time>2020-08-30T18:35:40Z</time>
      </trkpt>
      <trkpt lat="46.18428" lon="6.44323">
        <ele>1177</ele>
        <time>2020-08-30T18:35:44Z</time>
      </trkpt>
      <trkpt lat="46.18465" lon="6.44247">
        <ele>1165</ele>
        <time>2020-08-30T18:35:59Z</time>
      </trkpt>
      <trkpt lat="46.18566" lon="6.44151">
        <ele>1139</ele>
        <time>2020-08-30T18:36:27Z</time>
      </trkpt>
      <trkpt lat="46.18648" lon="6.44121">
        <ele>1128</ele>
        <time>2020-08-30T18:36:47Z</time>
      </trkpt>
      <trkpt lat="46.18703" lon="6.44089">
        <ele>1118</ele>
        <time>2020-08-30T18:37:01Z</time>
      </trkpt>
      <trkpt lat="46.18754" lon="6.44018">
        <ele>1107</ele>
        <time>2020-08-30T18:37:17Z</time>
      </trkpt>
      <trkpt lat="46.18803" lon="6.43973">
        <ele>1095</ele>
        <time>2020-08-30T18:37:31Z</time>
      </trkpt>
      <trkpt lat="46.1881" lon="6.43936">
        <ele>1091</ele>
        <time>2020-08-30T18:37:37Z</time>
      </trkpt>
      <trkpt lat="46.18846" lon="6.43835">
        <ele>1084</ele>
        <time>2020-08-30T18:37:55Z</time>
      </trkpt>
      <trkpt lat="46.18881" lon="6.43767">
        <ele>1077</ele>
        <time>2020-08-30T18:38:09Z</time>
      </trkpt>
      <trkpt lat="46.18926" lon="6.43743">
        <ele>1072</ele>
        <time>2020-08-30T18:38:20Z</time>
      </trkpt>
      <trkpt lat="46.19049" lon="6.43694">
        <ele>1047</ele>
        <time>2020-08-30T18:38:50Z</time>
      </trkpt>
      <trkpt lat="46.19049" lon="6.4369">
        <ele>1047</ele>
        <time>2020-08-30T18:38:51Z</time>
      </trkpt>
      <trkpt lat="46.19055" lon="6.4369">
        <ele>1046</ele>
        <time>2020-08-30T18:38:52Z</time>
      </trkpt>
      <trkpt lat="46.19049" lon="6.43705">
        <ele>1047</ele>
        <time>2020-08-30T18:38:55Z</time>
      </trkpt>
      <trkpt lat="46.19012" lon="6.43923">
        <ele>1056</ele>
        <time>2020-08-30T18:39:31Z</time>
      </trkpt>
      <trkpt lat="46.19017" lon="6.44036">
        <ele>1061</ele>
        <time>2020-08-30T18:39:49Z</time>
      </trkpt>
      <trkpt lat="46.19033" lon="6.44102">
        <ele>1063</ele>
        <time>2020-08-30T18:40:01Z</time>
      </trkpt>
      <trkpt lat="46.19013" lon="6.44145">
        <ele>1068</ele>
        <time>2020-08-30T18:40:09Z</time>
      </trkpt>
      <trkpt lat="46.19003" lon="6.44186">
        <ele>1073</ele>
        <time>2020-08-30T18:40:16Z</time>
      </trkpt>
      <trkpt lat="46.19006" lon="6.44206">
        <ele>1075</ele>
        <time>2020-08-30T18:40:19Z</time>
      </trkpt>
      <trkpt lat="46.19016" lon="6.44216">
        <ele>1074</ele>
        <time>2020-08-30T18:40:22Z</time>
      </trkpt>
      <trkpt lat="46.19044" lon="6.44199">
        <ele>1067</ele>
        <time>2020-08-30T18:40:29Z</time>
      </trkpt>
      <trkpt lat="46.19072" lon="6.44189">
        <ele>1061</ele>
        <time>2020-08-30T18:40:36Z</time>
      </trkpt>
      <trkpt lat="46.19088" lon="6.44191">
        <ele>1059</ele>
        <time>2020-08-30T18:40:40Z</time>
      </trkpt>
      <trkpt lat="46.19124" lon="6.44211">
        <ele>1060</ele>
        <time>2020-08-30T18:40:49Z</time>
      </trkpt>
      <trkpt lat="46.19135" lon="6.44214">
        <ele>1060</ele>
        <time>2020-08-30T18:40:51Z</time>
      </trkpt>
      <trkpt lat="46.1916" lon="6.44214">
        <ele>1059</ele>
        <time>2020-08-30T18:40:57Z</time>
      </trkpt>
      <trkpt lat="46.19211" lon="6.44109">
        <ele>1051</ele>
        <time>2020-08-30T18:41:18Z</time>
      </trkpt>
      <trkpt lat="46.19224" lon="6.44101">
        <ele>1051</ele>
        <time>2020-08-30T18:41:21Z</time>
      </trkpt>
      <trkpt lat="46.19274" lon="6.4405">
        <ele>1050</ele>
        <time>2020-08-30T18:41:36Z</time>
      </trkpt>
      <trkpt lat="46.19291" lon="6.4398">
        <ele>1045</ele>
        <time>2020-08-30T18:41:48Z</time>
      </trkpt>
      <trkpt lat="46.19299" lon="6.43958">
        <ele>1042</ele>
        <time>2020-08-30T18:41:52Z</time>
      </trkpt>
      <trkpt lat="46.19314" lon="6.43935">
        <ele>1041</ele>
        <time>2020-08-30T18:41:57Z</time>
      </trkpt>
      <trkpt lat="46.19333" lon="6.43918">
        <ele>1041</ele>
        <time>2020-08-30T18:42:02Z</time>
      </trkpt>
      <trkpt lat="46.19378" lon="6.43885">
        <ele>1035</ele>
        <time>2020-08-30T18:42:14Z</time>
      </trkpt>
      <trkpt lat="46.19379" lon="6.43837">
        <ele>1027</ele>
        <time>2020-08-30T18:42:21Z</time>
      </trkpt>
      <trkpt lat="46.1941" lon="6.43795">
        <ele>1017</ele>
        <time>2020-08-30T18:42:31Z</time>
      </trkpt>
      <trkpt lat="46.19465" lon="6.43745">
        <ele>1003</ele>
        <time>2020-08-30T18:42:47Z</time>
      </trkpt>
      <trkpt lat="46.19536" lon="6.43717">
        <ele>995</ele>
        <time>2020-08-30T18:43:04Z</time>
      </trkpt>
      <trkpt lat="46.19585" lon="6.43673">
        <ele>983</ele>
        <time>2020-08-30T18:43:17Z</time>
      </trkpt>
      <trkpt lat="46.19597" lon="6.43657">
        <ele>981</ele>
        <time>2020-08-30T18:43:21Z</time>
      </trkpt>
      <trkpt lat="46.1961" lon="6.43625">
        <ele>978</ele>
        <time>2020-08-30T18:43:27Z</time>
      </trkpt>
      <trkpt lat="46.19618" lon="6.4362">
        <ele>977</ele>
        <time>2020-08-30T18:43:29Z</time>
      </trkpt>
      <trkpt lat="46.19637" lon="6.43621">
        <ele>978</ele>
        <time>2020-08-30T18:43:33Z</time>
      </trkpt>
      <trkpt lat="46.19655" lon="6.43614">
        <ele>977</ele>
        <time>2020-08-30T18:43:38Z</time>
      </trkpt>
      <trkpt lat="46.19693" lon="6.43589">
        <ele>979</ele>
        <time>2020-08-30T18:43:48Z</time>
      </trkpt>
      <trkpt lat="46.19701" lon="6.4358">
        <ele>979</ele>
        <time>2020-08-30T18:43:50Z</time>
      </trkpt>
      <trkpt lat="46.19713" lon="6.43559">
        <ele>980</ele>
        <time>2020-08-30T18:43:54Z</time>
      </trkpt>
      <trkpt lat="46.1972" lon="6.43537">
        <ele>980</ele>
        <time>2020-08-30T18:43:58Z</time>
      </trkpt>
      <trkpt lat="46.19731" lon="6.43518">
        <ele>980</ele>
        <time>2020-08-30T18:44:02Z</time>
      </trkpt>
      <trkpt lat="46.19749" lon="6.43525">
        <ele>982</ele>
        <time>2020-08-30T18:44:07Z</time>
      </trkpt>
      <trkpt lat="46.19764" lon="6.43537">
        <ele>982</ele>
        <time>2020-08-30T18:44:11Z</time>
      </trkpt>
      <trkpt lat="46.19769" lon="6.43529">
        <ele>982</ele>
        <time>2020-08-30T18:44:12Z</time>
      </trkpt>
      <trkpt lat="46.19779" lon="6.43524">
        <ele>982</ele>
        <time>2020-08-30T18:44:15Z</time>
      </trkpt>
      <trkpt lat="46.19869" lon="6.43536">
        <ele>983</ele>
        <time>2020-08-30T18:44:36Z</time>
      </trkpt>
      <trkpt lat="46.19929" lon="6.43572">
        <ele>980</ele>
        <time>2020-08-30T18:44:51Z</time>
      </trkpt>
      <trkpt lat="46.19942" lon="6.43577">
        <ele>980</ele>
        <time>2020-08-30T18:44:54Z</time>
      </trkpt>
      <trkpt lat="46.19982" lon="6.43583">
        <ele>980</ele>
        <time>2020-08-30T18:45:04Z</time>
      </trkpt>
      <trkpt lat="46.20038" lon="6.43607">
        <ele>980</ele>
        <time>2020-08-30T18:45:17Z</time>
      </trkpt>
      <trkpt lat="46.20177" lon="6.4366">
        <ele>976</ele>
        <time>2020-08-30T18:45:51Z</time>
      </trkpt>
      <trkpt lat="46.20184" lon="6.43674">
        <ele>975</ele>
        <time>2020-08-30T18:45:54Z</time>
      </trkpt>
      <trkpt lat="46.2019" lon="6.43716">
        <ele>974</ele>
        <time>2020-08-30T18:46:01Z</time>
      </trkpt>
      <trkpt lat="46.20196" lon="6.43732">
        <ele>973</ele>
        <time>2020-08-30T18:46:04Z</time>
      </trkpt>
      <trkpt lat="46.20223" lon="6.43755">
        <ele>972</ele>
        <time>2020-08-30T18:46:11Z</time>
      </trkpt>
      <trkpt lat="46.20249" lon="6.43771">
        <ele>972</ele>
        <time>2020-08-30T18:46:17Z</time>
      </trkpt>
      <trkpt lat="46.20269" lon="6.43776">
        <ele>970</ele>
        <time>2020-08-30T18:46:22Z</time>
      </trkpt>
      <trkpt lat="46.20298" lon="6.43774">
        <ele>966</ele>
        <time>2020-08-30T18:46:29Z</time>
      </trkpt>
      <trkpt lat="46.20311" lon="6.43776">
        <ele>964</ele>
        <time>2020-08-30T18:46:32Z</time>
      </trkpt>
      <trkpt lat="46.2035" lon="6.43802">
        <ele>959</ele>
        <time>2020-08-30T18:46:42Z</time>
      </trkpt>
      <trkpt lat="46.20357" lon="6.43811">
        <ele>958</ele>
        <time>2020-08-30T18:46:44Z</time>
      </trkpt>
      <trkpt lat="46.20361" lon="6.43862">
        <ele>959</ele>
        <time>2020-08-30T18:46:53Z</time>
      </trkpt>
      <trkpt lat="46.2039" lon="6.43917">
        <ele>958</ele>
        <time>2020-08-30T18:47:04Z</time>
      </trkpt>
      <trkpt lat="46.20533" lon="6.44083">
        <ele>946</ele>
        <time>2020-08-30T18:47:47Z</time>
      </trkpt>
      <trkpt lat="46.20535" lon="6.44084">
        <ele>945</ele>
        <time>2020-08-30T18:47:47Z</time>
      </trkpt>
      <trkpt lat="46.20564" lon="6.44041">
        <ele>938</ele>
        <time>2020-08-30T18:47:57Z</time>
      </trkpt>
      <trkpt lat="46.20665" lon="6.44099">
        <ele>934</ele>
        <time>2020-08-30T18:48:22Z</time>
      </trkpt>
      <trkpt lat="46.20774" lon="6.44095">
        <ele>925</ele>
        <time>2020-08-30T18:48:48Z</time>
      </trkpt>
      <trkpt lat="46.20961" lon="6.44224">
        <ele>918</ele>
        <time>2020-08-30T18:49:36Z</time>
      </trkpt>
      <trkpt lat="46.21062" lon="6.44249">
        <ele>899</ele>
        <time>2020-08-30T18:50:00Z</time>
      </trkpt>
      <trkpt lat="46.21142" lon="6.44348">
        <ele>885</ele>
        <time>2020-08-30T18:50:25Z</time>
      </trkpt>
      <trkpt lat="46.21198" lon="6.44348">
        <ele>878</ele>
        <time>2020-08-30T18:50:38Z</time>
      </trkpt>
      <trkpt lat="46.21268" lon="6.44376">
        <ele>872</ele>
        <time>2020-08-30T18:50:55Z</time>
      </trkpt>
      <trkpt lat="46.21402" lon="6.44316">
        <ele>850</ele>
        <time>2020-08-30T18:51:27Z</time>
      </trkpt>
      <trkpt lat="46.21433" lon="6.4429">
        <ele>847</ele>
        <time>2020-08-30T18:51:36Z</time>
      </trkpt>
      <trkpt lat="46.21464" lon="6.44269">
        <ele>846</ele>
        <time>2020-08-30T18:51:44Z</time>
      </trkpt>
      <trkpt lat="46.21522" lon="6.44252">
        <ele>843</ele>
        <time>2020-08-30T18:51:58Z</time>
      </trkpt>
      <trkpt lat="46.21512" lon="6.442">
        <ele>839</ele>
        <time>2020-08-30T18:52:06Z</time>
      </trkpt>
      <trkpt lat="46.21517" lon="6.44129">
        <ele>833</ele>
        <time>2020-08-30T18:52:18Z</time>
      </trkpt>
      <trkpt lat="46.2155" lon="6.44071">
        <ele>828</ele>
        <time>2020-08-30T18:52:30Z</time>
      </trkpt>
      <trkpt lat="46.21601" lon="6.44046">
        <ele>823</ele>
        <time>2020-08-30T18:52:42Z</time>
      </trkpt>
      <trkpt lat="46.21593" lon="6.44104">
        <ele>828</ele>
        <time>2020-08-30T18:52:52Z</time>
      </trkpt>
      <trkpt lat="46.21598" lon="6.44102">
        <ele>827</ele>
        <time>2020-08-30T18:52:53Z</time>
      </trkpt>
      <trkpt lat="46.21599" lon="6.4411">
        <ele>827</ele>
        <time>2020-08-30T18:52:55Z</time>
      </trkpt>
      <trkpt lat="46.2161" lon="6.44118">
        <ele>826</ele>
        <time>2020-08-30T18:52:57Z</time>
      </trkpt>
      <trkpt lat="46.21649" lon="6.44096">
        <ele>821</ele>
        <time>2020-08-30T18:53:07Z</time>
      </trkpt>
      <trkpt lat="46.21638" lon="6.44064">
        <ele>820</ele>
        <time>2020-08-30T18:53:13Z</time>
      </trkpt>
      <trkpt lat="46.21631" lon="6.43984">
        <ele>813</ele>
        <time>2020-08-30T18:53:26Z</time>
      </trkpt>
      <trkpt lat="46.21623" lon="6.43952">
        <ele>810</ele>
        <time>2020-08-30T18:53:32Z</time>
      </trkpt>
      <trkpt lat="46.21616" lon="6.43937">
        <ele>808</ele>
        <time>2020-08-30T18:53:34Z</time>
      </trkpt>
      <trkpt lat="46.21606" lon="6.43923">
        <ele>807</ele>
        <time>2020-08-30T18:53:38Z</time>
      </trkpt>
      <trkpt lat="46.21597" lon="6.4389">
        <ele>804</ele>
        <time>2020-08-30T18:53:43Z</time>
      </trkpt>
      <trkpt lat="46.21599" lon="6.43869">
        <ele>802</ele>
        <time>2020-08-30T18:53:47Z</time>
      </trkpt>
      <trkpt lat="46.21576" lon="6.43858">
        <ele>801</ele>
        <time>2020-08-30T18:53:52Z</time>
      </trkpt>
      <trkpt lat="46.21563" lon="6.43828">
        <ele>797</ele>
        <time>2020-08-30T18:53:58Z</time>
      </trkpt>
      <trkpt lat="46.21548" lon="6.43807">
        <ele>796</ele>
        <time>2020-08-30T18:54:03Z</time>
      </trkpt>
      <trkpt lat="46.21526" lon="6.43795">
        <ele>795</ele>
        <time>2020-08-30T18:54:09Z</time>
      </trkpt>
      <trkpt lat="46.21516" lon="6.4373">
        <ele>791</ele>
        <time>2020-08-30T18:54:19Z</time>
      </trkpt>
      <trkpt lat="46.21526" lon="6.43698">
        <ele>789</ele>
        <time>2020-08-30T18:54:25Z</time>
      </trkpt>
      <trkpt lat="46.21514" lon="6.43627">
        <ele>787</ele>
        <time>2020-08-30T18:54:37Z</time>
      </trkpt>
      <trkpt lat="46.21513" lon="6.43595">
        <ele>785</ele>
        <time>2020-08-30T18:54:42Z</time>
      </trkpt>
      <trkpt lat="46.21519" lon="6.4355">
        <ele>783</ele>
        <time>2020-08-30T18:54:49Z</time>
      </trkpt>
      <trkpt lat="46.21513" lon="6.43494">
        <ele>781</ele>
        <time>2020-08-30T18:54:59Z</time>
      </trkpt>
      <trkpt lat="46.21526" lon="6.43436">
        <ele>780</ele>
        <time>2020-08-30T18:55:08Z</time>
      </trkpt>
      <trkpt lat="46.21517" lon="6.43256">
        <ele>775</ele>
        <time>2020-08-30T18:55:38Z</time>
      </trkpt>
      <trkpt lat="46.21525" lon="6.43192">
        <ele>773</ele>
        <time>2020-08-30T18:55:48Z</time>
      </trkpt>
      <trkpt lat="46.21519" lon="6.43142">
        <ele>771</ele>
        <time>2020-08-30T18:55:56Z</time>
      </trkpt>
      <trkpt lat="46.21541" lon="6.43069">
        <ele>768</ele>
        <time>2020-08-30T18:56:09Z</time>
      </trkpt>
      <trkpt lat="46.21552" lon="6.43011">
        <ele>767</ele>
        <time>2020-08-30T18:56:19Z</time>
      </trkpt>
      <trkpt lat="46.21571" lon="6.42966">
        <ele>768</ele>
        <time>2020-08-30T18:56:27Z</time>
      </trkpt>
      <trkpt lat="46.21627" lon="6.42971">
        <ele>770</ele>
        <time>2020-08-30T18:56:40Z</time>
      </trkpt>
      <trkpt lat="46.2166" lon="6.43009">
        <ele>772</ele>
        <time>2020-08-30T18:56:50Z</time>
      </trkpt>
      <trkpt lat="46.2166" lon="6.43054">
        <ele>771</ele>
        <time>2020-08-30T18:56:58Z</time>
      </trkpt>
      <trkpt lat="46.21647" lon="6.43095">
        <ele>770</ele>
        <time>2020-08-30T18:57:05Z</time>
      </trkpt>
      <trkpt lat="46.21641" lon="6.43136">
        <ele>771</ele>
        <time>2020-08-30T18:57:12Z</time>
      </trkpt>
      <trkpt lat="46.21639" lon="6.43185">
        <ele>772</ele>
        <time>2020-08-30T18:57:20Z</time>
      </trkpt>
      <trkpt lat="46.21642" lon="6.43241">
        <ele>773</ele>
        <time>2020-08-30T18:57:29Z</time>
      </trkpt>
      <trkpt lat="46.21659" lon="6.4328">
        <ele>773</ele>
        <time>2020-08-30T18:57:36Z</time>
      </trkpt>
      <trkpt lat="46.21691" lon="6.43292">
        <ele>773</ele>
        <time>2020-08-30T18:57:44Z</time>
      </trkpt>
      <trkpt lat="46.2173" lon="6.43316">
        <ele>772</ele>
        <time>2020-08-30T18:57:54Z</time>
      </trkpt>
      <trkpt lat="46.21776" lon="6.43337">
        <ele>771</ele>
        <time>2020-08-30T18:58:05Z</time>
      </trkpt>
      <trkpt lat="46.2178" lon="6.43404">
        <ele>772</ele>
        <time>2020-08-30T18:58:16Z</time>
      </trkpt>
      <trkpt lat="46.21803" lon="6.43428">
        <ele>773</ele>
        <time>2020-08-30T18:58:23Z</time>
      </trkpt>
      <trkpt lat="46.21874" lon="6.43428">
        <ele>773</ele>
        <time>2020-08-30T18:58:39Z</time>
      </trkpt>
      <trkpt lat="46.21938" lon="6.43455">
        <ele>774</ele>
        <time>2020-08-30T18:58:55Z</time>
      </trkpt>
      <trkpt lat="46.21954" lon="6.43417">
        <ele>774</ele>
        <time>2020-08-30T18:59:02Z</time>
      </trkpt>
      <trkpt lat="46.21996" lon="6.43462">
        <ele>775</ele>
        <time>2020-08-30T18:59:14Z</time>
      </trkpt>
      <trkpt lat="46.22021" lon="6.43513">
        <ele>777</ele>
        <time>2020-08-30T18:59:24Z</time>
      </trkpt>
      <trkpt lat="46.2205" lon="6.43565">
        <ele>781</ele>
        <time>2020-08-30T18:59:35Z</time>
      </trkpt>
      <trkpt lat="46.22088" lon="6.43606">
        <ele>782</ele>
        <time>2020-08-30T18:59:46Z</time>
      </trkpt>
      <trkpt lat="46.22104" lon="6.43657">
        <ele>783</ele>
        <time>2020-08-30T18:59:55Z</time>
      </trkpt>
      <trkpt lat="46.22187" lon="6.43621">
        <ele>782</ele>
        <time>2020-08-30T19:00:15Z</time>
      </trkpt>
      <trkpt lat="46.22212" lon="6.43674">
        <ele>785</ele>
        <time>2020-08-30T19:00:26Z</time>
      </trkpt>
      <trkpt lat="46.22223" lon="6.43704">
        <ele>786</ele>
        <time>2020-08-30T19:00:31Z</time>
      </trkpt>
      <trkpt lat="46.22287" lon="6.43707">
        <ele>786</ele>
        <time>2020-08-30T19:00:46Z</time>
      </trkpt>
      <trkpt lat="46.22313" lon="6.43756">
        <ele>787</ele>
        <time>2020-08-30T19:00:56Z</time>
      </trkpt>
      <trkpt lat="46.22344" lon="6.43799">
        <ele>788</ele>
        <time>2020-08-30T19:01:06Z</time>
      </trkpt>
      <trkpt lat="46.22356" lon="6.43863">
        <ele>788</ele>
        <time>2020-08-30T19:01:17Z</time>
      </trkpt>
      <trkpt lat="46.22401" lon="6.43893">
        <ele>788</ele>
        <time>2020-08-30T19:01:28Z</time>
      </trkpt>
      <trkpt lat="46.22402" lon="6.43977">
        <ele>790</ele>
        <time>2020-08-30T19:01:42Z</time>
      </trkpt>
      <trkpt lat="46.22438" lon="6.4402">
        <ele>792</ele>
        <time>2020-08-30T19:01:53Z</time>
      </trkpt>
      <trkpt lat="46.22481" lon="6.44052">
        <ele>793</ele>
        <time>2020-08-30T19:02:04Z</time>
      </trkpt>
      <trkpt lat="46.22511" lon="6.44101">
        <ele>794</ele>
        <time>2020-08-30T19:02:15Z</time>
      </trkpt>
      <trkpt lat="46.22531" lon="6.44166">
        <ele>795</ele>
        <time>2020-08-30T19:02:26Z</time>
      </trkpt>
      <trkpt lat="46.22592" lon="6.44136">
        <ele>793</ele>
        <time>2020-08-30T19:02:41Z</time>
      </trkpt>
      <trkpt lat="46.22634" lon="6.44142">
        <ele>794</ele>
        <time>2020-08-30T19:02:51Z</time>
      </trkpt>
      <trkpt lat="46.22668" lon="6.44226">
        <ele>799</ele>
        <time>2020-08-30T19:03:07Z</time>
      </trkpt>
      <trkpt lat="46.22689" lon="6.44239">
        <ele>801</ele>
        <time>2020-08-30T19:03:12Z</time>
      </trkpt>
      <trkpt lat="46.22756" lon="6.4426">
        <ele>806</ele>
        <time>2020-08-30T19:03:28Z</time>
      </trkpt>
      <trkpt lat="46.22803" lon="6.44365">
        <ele>808</ele>
        <time>2020-08-30T19:03:48Z</time>
      </trkpt>
      <trkpt lat="46.22858" lon="6.44365">
        <ele>808</ele>
        <time>2020-08-30T19:04:01Z</time>
      </trkpt>
      <trkpt lat="46.22901" lon="6.44387">
        <ele>807</ele>
        <time>2020-08-30T19:04:12Z</time>
      </trkpt>
      <trkpt lat="46.22913" lon="6.4443">
        <ele>807</ele>
        <time>2020-08-30T19:04:19Z</time>
      </trkpt>
      <trkpt lat="46.22923" lon="6.44483">
        <ele>806</ele>
        <time>2020-08-30T19:04:28Z</time>
      </trkpt>
      <trkpt lat="46.2298" lon="6.44473">
        <ele>806</ele>
        <time>2020-08-30T19:04:42Z</time>
      </trkpt>
      <trkpt lat="46.22999" lon="6.44503">
        <ele>807</ele>
        <time>2020-08-30T19:04:48Z</time>
      </trkpt>
      <trkpt lat="46.23004" lon="6.44558">
        <ele>810</ele>
        <time>2020-08-30T19:04:57Z</time>
      </trkpt>
      <trkpt lat="46.23036" lon="6.44526">
        <ele>812</ele>
        <time>2020-08-30T19:05:06Z</time>
      </trkpt>
      <trkpt lat="46.23128" lon="6.4458">
        <ele>818</ele>
        <time>2020-08-30T19:05:30Z</time>
      </trkpt>
      <trkpt lat="46.23165" lon="6.44629">
        <ele>819</ele>
        <time>2020-08-30T19:05:41Z</time>
      </trkpt>
      <trkpt lat="46.23195" lon="6.44679">
        <ele>820</ele>
        <time>2020-08-30T19:05:52Z</time>
      </trkpt>
      <trkpt lat="46.23205" lon="6.44743">
        <ele>818</ele>
        <time>2020-08-30T19:06:03Z</time>
      </trkpt>
      <trkpt lat="46.23241" lon="6.44775">
        <ele>820</ele>
        <time>2020-08-30T19:06:12Z</time>
      </trkpt>
      <trkpt lat="46.2329" lon="6.44799">
        <ele>823</ele>
        <time>2020-08-30T19:06:24Z</time>
      </trkpt>
      <trkpt lat="46.23312" lon="6.44837">
        <ele>825</ele>
        <time>2020-08-30T19:06:32Z</time>
      </trkpt>
      <trkpt lat="46.23318" lon="6.44887">
        <ele>825</ele>
        <time>2020-08-30T19:06:41Z</time>
      </trkpt>
      <trkpt lat="46.23363" lon="6.44897">
        <ele>826</ele>
        <time>2020-08-30T19:06:51Z</time>
      </trkpt>
      <trkpt lat="46.23412" lon="6.4494">
        <ele>828</ele>
        <time>2020-08-30T19:07:05Z</time>
      </trkpt>
      <trkpt lat="46.23447" lon="6.44962">
        <ele>829</ele>
        <time>2020-08-30T19:07:14Z</time>
      </trkpt>
      <trkpt lat="46.23498" lon="6.44975">
        <ele>830</ele>
        <time>2020-08-30T19:07:26Z</time>
      </trkpt>
      <trkpt lat="46.23519" lon="6.45041">
        <ele>831</ele>
        <time>2020-08-30T19:07:37Z</time>
      </trkpt>
      <trkpt lat="46.23587" lon="6.45046">
        <ele>835</ele>
        <time>2020-08-30T19:07:53Z</time>
      </trkpt>
      <trkpt lat="46.23617" lon="6.45091">
        <ele>838</ele>
        <time>2020-08-30T19:08:03Z</time>
      </trkpt>
      <trkpt lat="46.23621" lon="6.45121">
        <ele>839</ele>
        <time>2020-08-30T19:08:08Z</time>
      </trkpt>
      <trkpt lat="46.23682" lon="6.45131">
        <ele>845</ele>
        <time>2020-08-30T19:08:23Z</time>
      </trkpt>
      <trkpt lat="46.23717" lon="6.45166">
        <ele>847</ele>
        <time>2020-08-30T19:08:33Z</time>
      </trkpt>
      <trkpt lat="46.2375" lon="6.45215">
        <ele>850</ele>
        <time>2020-08-30T19:08:44Z</time>
      </trkpt>
      <trkpt lat="46.23802" lon="6.45236">
        <ele>852</ele>
        <time>2020-08-30T19:08:56Z</time>
      </trkpt>
      <trkpt lat="46.23839" lon="6.45202">
        <ele>857</ele>
        <time>2020-08-30T19:09:07Z</time>
      </trkpt>
      <trkpt lat="46.23867" lon="6.45243">
        <ele>857</ele>
        <time>2020-08-30T19:09:16Z</time>
      </trkpt>
      <trkpt lat="46.23855" lon="6.45264">
        <ele>854</ele>
        <time>2020-08-30T19:09:20Z</time>
      </trkpt>
      <trkpt lat="46.23838" lon="6.45284">
        <ele>851</ele>
        <time>2020-08-30T19:09:25Z</time>
      </trkpt>
      <trkpt lat="46.23847" lon="6.45333">
        <ele>849</ele>
        <time>2020-08-30T19:09:34Z</time>
      </trkpt>
      <trkpt lat="46.23836" lon="6.45447">
        <ele>853</ele>
        <time>2020-08-30T19:09:52Z</time>
      </trkpt>
      <trkpt lat="46.23839" lon="6.45522">
        <ele>853</ele>
        <time>2020-08-30T19:10:04Z</time>
      </trkpt>
      <trkpt lat="46.23857" lon="6.45518">
        <ele>855</ele>
        <time>2020-08-30T19:10:09Z</time>
      </trkpt>
      <trkpt lat="46.23854" lon="6.45565">
        <ele>853</ele>
        <time>2020-08-30T19:10:16Z</time>
      </trkpt>
      <trkpt lat="46.23909" lon="6.45618">
        <ele>853</ele>
        <time>2020-08-30T19:10:32Z</time>
      </trkpt>
      <trkpt lat="46.23909" lon="6.45706">
        <ele>860</ele>
        <time>2020-08-30T19:10:46Z</time>
      </trkpt>
      <trkpt lat="46.23936" lon="6.45732">
        <ele>864</ele>
        <time>2020-08-30T19:10:53Z</time>
      </trkpt>
      <trkpt lat="46.23973" lon="6.45756">
        <ele>867</ele>
        <time>2020-08-30T19:11:03Z</time>
      </trkpt>
      <trkpt lat="46.24001" lon="6.45809">
        <ele>868</ele>
        <time>2020-08-30T19:11:14Z</time>
      </trkpt>
      <trkpt lat="46.24019" lon="6.45863">
        <ele>869</ele>
        <time>2020-08-30T19:11:23Z</time>
      </trkpt>
      <trkpt lat="46.24028" lon="6.45923">
        <ele>872</ele>
        <time>2020-08-30T19:11:33Z</time>
      </trkpt>
      <trkpt lat="46.24056" lon="6.45966">
        <ele>873</ele>
        <time>2020-08-30T19:11:43Z</time>
      </trkpt>
      <trkpt lat="46.24106" lon="6.45983">
        <ele>873</ele>
        <time>2020-08-30T19:11:55Z</time>
      </trkpt>
      <trkpt lat="46.24212" lon="6.46181">
        <ele>886</ele>
        <time>2020-08-30T19:12:35Z</time>
      </trkpt>
      <trkpt lat="46.24265" lon="6.46213">
        <ele>886</ele>
        <time>2020-08-30T19:12:49Z</time>
      </trkpt>
      <trkpt lat="46.24298" lon="6.46241">
        <ele>886</ele>
        <time>2020-08-30T19:12:58Z</time>
      </trkpt>
      <trkpt lat="46.24362" lon="6.4626">
        <ele>888</ele>
        <time>2020-08-30T19:13:13Z</time>
      </trkpt>
      <trkpt lat="46.24408" lon="6.46303">
        <ele>890</ele>
        <time>2020-08-30T19:13:26Z</time>
      </trkpt>
      <trkpt lat="46.24489" lon="6.46256">
        <ele>884</ele>
        <time>2020-08-30T19:13:46Z</time>
      </trkpt>
      <trkpt lat="46.24592" lon="6.46303">
        <ele>885</ele>
        <time>2020-08-30T19:14:11Z</time>
      </trkpt>
      <trkpt lat="46.24597" lon="6.46331">
        <ele>888</ele>
        <time>2020-08-30T19:14:16Z</time>
      </trkpt>
      <trkpt lat="46.24661" lon="6.46417">
        <ele>891</ele>
        <time>2020-08-30T19:14:36Z</time>
      </trkpt>
      <trkpt lat="46.24695" lon="6.46417">
        <ele>893</ele>
        <time>2020-08-30T19:14:44Z</time>
      </trkpt>
      <trkpt lat="46.24744" lon="6.46543">
        <ele>899</ele>
        <time>2020-08-30T19:15:08Z</time>
      </trkpt>
      <trkpt lat="46.24744" lon="6.46633">
        <ele>902</ele>
        <time>2020-08-30T19:15:22Z</time>
      </trkpt>
      <trkpt lat="46.24798" lon="6.46696">
        <ele>907</ele>
        <time>2020-08-30T19:15:38Z</time>
      </trkpt>
      <trkpt lat="46.2477" lon="6.46917">
        <ele>928</ele>
        <time>2020-08-30T19:16:15Z</time>
      </trkpt>
      <trkpt lat="46.24839" lon="6.46929">
        <ele>930</ele>
        <time>2020-08-30T19:16:31Z</time>
      </trkpt>
      <trkpt lat="46.24919" lon="6.46998">
        <ele>934</ele>
        <time>2020-08-30T19:16:53Z</time>
      </trkpt>
      <trkpt lat="46.25025" lon="6.47075">
        <ele>943</ele>
        <time>2020-08-30T19:17:20Z</time>
      </trkpt>
      <trkpt lat="46.24964" lon="6.47086">
        <ele>944</ele>
        <time>2020-08-30T19:17:35Z</time>
      </trkpt>
      <trkpt lat="46.24884" lon="6.47153">
        <ele>948</ele>
        <time>2020-08-30T19:17:56Z</time>
      </trkpt>
      <trkpt lat="46.24848" lon="6.47178">
        <ele>948</ele>
        <time>2020-08-30T19:18:06Z</time>
      </trkpt>
      <trkpt lat="46.24857" lon="6.47281">
        <ele>956</ele>
        <time>2020-08-30T19:18:22Z</time>
      </trkpt>
    </trkseg>
  </trk>
</gpx>